Wetterdaten: Dienstag, 27.10.2020
Datum Zeit Temp. Aussen Temp. o. S. Temp +5cm Feuchte Auss Luftdruck Regen Sonnenschein Regendauer Solar Windben Empfang
27.10.2020 00:00 10,4 C 10,0 C 8,9 C 85 % 1004,0 hPa 0,0 l/m 0 min 0 min 0 W/m 16,1 km/h (3 Bft) 100,00 %
27.10.2020 00:02 10,4 C 10,0 C 8,9 C 85 % 1003,9 hPa 0,0 l/m 0 min 0 min 0 W/m 3,2 km/h (1 Bft) 10,53 %
27.10.2020 00:04 10,4 C 10,0 C 8,9 C 85 % 1003,9 hPa 0,0 l/m 0 min 0 min 0 W/m 12,9 km/h (3 Bft) 93,18 %
27.10.2020 00:08 10,5 C 8,9 C 8,4 C 85 % 1004,0 hPa 0,0 l/m 0 min 4 min 0 W/m 19,3 km/h (3 Bft) 97,85 %
27.10.2020 00:10 10,5 C 8,9 C 7,8 C 86 % 1003,9 hPa 0,0 l/m 0 min 2 min 0 W/m 25,7 km/h (4 Bft) 97,87 %
27.10.2020 00:12 10,5 C 8,9 C 7,8 C 86 % 1003,9 hPa 0,0 l/m 0 min 2 min 0 W/m 12,9 km/h (3 Bft) 95,74 %
27.10.2020 00:14 10,5 C 8,3 C 7,8 C 86 % 1003,9 hPa 0,0 l/m 0 min 2 min 0 W/m 12,9 km/h (3 Bft) 97,87 %
27.10.2020 00:16 10,5 C 8,3 C 7,2 C 86 % 1003,9 hPa 0,0 l/m 0 min 2 min 0 W/m 25,7 km/h (4 Bft) 97,87 %
27.10.2020 00:18 10,4 C 8,3 C 7,2 C 87 % 1003,9 hPa 0,0 l/m 0 min 2 min 0 W/m 29,0 km/h (5 Bft) 97,87 %
27.10.2020 00:20 10,4 C 8,3 C 7,2 C 87 % 1003,9 hPa 0,0 l/m 0 min 2 min 0 W/m 19,3 km/h (3 Bft) 95,65 %
27.10.2020 00:22 10,4 C 8,3 C 7,2 C 87 % 1003,9 hPa 0,0 l/m 0 min 2 min 0 W/m 12,9 km/h (3 Bft) 93,62 %
27.10.2020 00:24 10,4 C 8,3 C 7,2 C 88 % 1003,9 hPa 0,0 l/m 0 min 2 min 0 W/m 19,3 km/h (3 Bft) 95,74 %
27.10.2020 00:26 10,3 C 8,3 C 7,2 C 88 % 1003,9 hPa 0,2 l/m 0 min 2 min 0 W/m 12,9 km/h (3 Bft) 100,00 %
27.10.2020 00:28 10,3 C 8,3 C 7,2 C 88 % 1003,9 hPa 0,0 l/m 0 min 0 min 0 W/m 12,9 km/h (3 Bft) 93,62 %
27.10.2020 00:30 10,3 C 8,3 C 7,2 C 88 % 1003,9 hPa 0,0 l/m 0 min 0 min 0 W/m 12,9 km/h (3 Bft) 95,74 %
27.10.2020 00:32 10,3 C 8,3 C 7,2 C 88 % 1003,9 hPa 0,0 l/m 0 min 0 min 0 W/m 19,3 km/h (3 Bft) 93,48 %
27.10.2020 00:34 10,2 C 8,3 C 7,2 C 88 % 1003,9 hPa 0,0 l/m 0 min 0 min 0 W/m 12,9 km/h (3 Bft) 95,74 %
27.10.2020 00:36 10,1 C 8,3 C 7,2 C 89 % 1003,9 hPa 0,0 l/m 0 min 0 min 0 W/m 22,5 km/h (4 Bft) 95,74 %
27.10.2020 00:38 10,1 C 8,3 C 7,2 C 88 % 1003,8 hPa 0,0 l/m 0 min 0 min 0 W/m 19,3 km/h (3 Bft) 95,74 %
27.10.2020 00:40 10,0 C 8,3 C 7,2 C 88 % 1003,8 hPa 0,0 l/m 0 min 0 min 0 W/m 22,5 km/h (4 Bft) 95,65 %
27.10.2020 00:42 10,0 C 8,3 C 7,2 C 88 % 1003,8 hPa 0,0 l/m 0 min 0 min 0 W/m 16,1 km/h (3 Bft) 95,74 %
27.10.2020 00:44 10,0 C 8,3 C 7,2 C 89 % 1003,8 hPa 0,0 l/m 0 min 0 min 0 W/m 12,9 km/h (3 Bft) 95,74 %
27.10.2020 00:46 9,9 C 8,3 C 7,2 C 89 % 1003,8 hPa 0,0 l/m 0 min 0 min 0 W/m 32,2 km/h (5 Bft) 95,74 %
27.10.2020 00:48 9,9 C 8,3 C 7,2 C 89 % 1003,8 hPa 0,0 l/m 0 min 0 min 0 W/m 19,3 km/h (3 Bft) 97,87 %
27.10.2020 00:50 9,9 C 8,3 C 7,2 C 89 % 1003,8 hPa 0,0 l/m 0 min 0 min 0 W/m 12,9 km/h (3 Bft) 93,62 %
27.10.2020 00:52 9,9 C 8,3 C 7,2 C 89 % 1003,8 hPa 0,0 l/m 0 min 0 min 0 W/m 16,1 km/h (3 Bft) 93,48 %
27.10.2020 00:54 9,8 C 8,3 C 7,2 C 89 % 1003,8 hPa 0,0 l/m 0 min 0 min 0 W/m 19,3 km/h (3 Bft) 91,49 %
27.10.2020 00:56 9,8 C 8,3 C 7,2 C 89 % 1003,9 hPa 0,0 l/m 0 min 0 min 0 W/m 25,7 km/h (4 Bft) 91,49 %
27.10.2020 00:58 9,8 C 8,3 C 7,2 C 89 % 1003,9 hPa 0,0 l/m 0 min 0 min 0 W/m 19,3 km/h (3 Bft) 93,62 %
27.10.2020 01:00 9,8 C 8,3 C 7,2 C 89 % 1003,9 hPa 0,0 l/m 0 min 0 min 0 W/m 22,5 km/h (4 Bft) 93,62 %
27.10.2020 01:02 9,7 C 8,3 C 7,8 C 89 % 1003,9 hPa 0,0 l/m 0 min 0 min 0 W/m 22,5 km/h (4 Bft) 93,62 %
27.10.2020 01:04 9,7 C 8,3 C 7,8 C 89 % 1003,8 hPa 0,0 l/m 0 min 0 min 0 W/m 19,3 km/h (3 Bft) 97,87 %
27.10.2020 01:06 9,7 C 8,3 C 7,8 C 89 % 1003,9 hPa 0,0 l/m 0 min 0 min 0 W/m 29,0 km/h (5 Bft) 93,48 %
27.10.2020 01:08 9,7 C 8,3 C 7,8 C 89 % 1003,9 hPa 0,0 l/m 0 min 0 min 0 W/m 19,3 km/h (3 Bft) 95,74 %
27.10.2020 01:10 9,7 C 8,3 C 7,8 C 89 % 1003,9 hPa 0,0 l/m 0 min 0 min 0 W/m 19,3 km/h (3 Bft) 93,62 %
27.10.2020 01:12 9,6 C 8,3 C 7,8 C 89 % 1003,9 hPa 0,0 l/m 0 min 0 min 0 W/m 19,3 km/h (3 Bft) 95,74 %
27.10.2020 01:14 9,6 C 8,3 C 7,8 C 89 % 1003,9 hPa 0,0 l/m 0 min 0 min 0 W/m 22,5 km/h (4 Bft) 95,74 %
27.10.2020 01:16 9,6 C 8,3 C 7,8 C 89 % 1003,9 hPa 0,0 l/m 0 min 0 min 0 W/m 19,3 km/h (3 Bft) 95,74 %
27.10.2020 01:18 9,6 C 8,3 C 7,8 C 89 % 1004,0 hPa 0,0 l/m 0 min 0 min 0 W/m 16,1 km/h (3 Bft) 97,83 %
27.10.2020 01:20 9,6 C 8,3 C 7,8 C 89 % 1003,9 hPa 0,0 l/m 0 min 0 min 0 W/m 16,1 km/h (3 Bft) 95,74 %
27.10.2020 01:22 9,6 C 8,3 C 7,8 C 89 % 1004,0 hPa 0,0 l/m 0 min 0 min 0 W/m 35,4 km/h (5 Bft) 95,74 %
27.10.2020 01:24 9,6 C 8,3 C 7,8 C 89 % 1003,9 hPa 0,0 l/m 0 min 0 min 0 W/m 16,1 km/h (3 Bft) 97,87 %
27.10.2020 01:26 9,6 C 8,3 C 7,8 C 89 % 1004,0 hPa 0,0 l/m 0 min 0 min 0 W/m 29,0 km/h (5 Bft) 95,74 %
27.10.2020 01:28 9,5 C 8,3 C 7,8 C 89 % 1004,0 hPa 0,0 l/m 0 min 0 min 0 W/m 25,7 km/h (4 Bft) 97,87 %
27.10.2020 01:30 9,5 C 8,3 C 7,8 C 89 % 1004,0 hPa 0,0 l/m 0 min 0 min 0 W/m 19,3 km/h (3 Bft) 97,83 %
27.10.2020 01:32 9,5 C 8,3 C 7,8 C 89 % 1004,0 hPa 0,0 l/m 0 min 0 min 0 W/m 22,5 km/h (4 Bft) 97,87 %
27.10.2020 01:34 9,5 C 8,3 C 7,8 C 89 % 1004,0 hPa 0,0 l/m 0 min 0 min 0 W/m 19,3 km/h (3 Bft) 97,87 %
27.10.2020 01:36 9,5 C 8,3 C 7,8 C 89 % 1004,0 hPa 0,0 l/m 0 min 0 min 0 W/m 19,3 km/h (3 Bft) 97,87 %
27.10.2020 01:38 9,5 C 8,3 C 7,8 C 89 % 1004,0 hPa 0,0 l/m 0 min 0 min 0 W/m 19,3 km/h (3 Bft) 97,87 %
27.10.2020 01:40 9,5 C 8,3 C 7,8 C 89 % 1004,1 hPa 0,0 l/m 0 min 0 min 0 W/m 12,9 km/h (3 Bft) 97,87 %
27.10.2020 01:42 9,5 C 8,3 C 7,2 C 89 % 1004,0 hPa 0,0 l/m 0 min 0 min 0 W/m 12,9 km/h (3 Bft) 97,73 %
27.10.2020 01:44 9,4 C 8,3 C 7,2 C 89 % 1004,0 hPa 0,0 l/m 0 min 0 min 0 W/m 16,1 km/h (3 Bft) 95,74 %
27.10.2020 01:46 9,4 C 8,3 C 7,2 C 89 % 1004,0 hPa 0,0 l/m 0 min 0 min 0 W/m 6,4 km/h (2 Bft) 95,74 %
27.10.2020 01:48 9,4 C 8,3 C 7,2 C 89 % 1004,0 hPa 0,0 l/m 0 min 0 min 0 W/m 12,9 km/h (3 Bft) 97,87 %
27.10.2020 01:50 9,4 C 8,3 C 7,2 C 89 % 1004,0 hPa 0,0 l/m 0 min 0 min 0 W/m 16,1 km/h (3 Bft) 97,87 %
27.10.2020 01:52 9,4 C 8,3 C 7,2 C 89 % 1004,0 hPa 0,0 l/m 0 min 0 min 0 W/m 6,4 km/h (2 Bft) 97,83 %
27.10.2020 01:54 9,3 C 8,3 C 7,2 C 89 % 1004,1 hPa 0,0 l/m 0 min 0 min 0 W/m 16,1 km/h (3 Bft) 100,00 %
27.10.2020 01:56 9,3 C 8,3 C 7,2 C 89 % 1004,0 hPa 0,0 l/m 0 min 0 min 0 W/m 19,3 km/h (3 Bft) 97,87 %
27.10.2020 01:58 9,3 C 8,3 C 7,2 C 90 % 1004,0 hPa 0,0 l/m 0 min 0 min 0 W/m 16,1 km/h (3 Bft) 100,00 %
27.10.2020 02:00 9,3 C 8,3 C 7,2 C 90 % 1004,1 hPa 0,0 l/m 0 min 0 min 0 W/m 3,2 km/h (1 Bft) 100,00 %
27.10.2020 02:02 9,3 C 8,3 C 7,2 C 90 % 1004,1 hPa 0,0 l/m 0 min 0 min 0 W/m 6,4 km/h (2 Bft) 97,87 %
27.10.2020 02:04 9,2 C 8,3 C 7,2 C 90 % 1004,1 hPa 0,0 l/m 0 min 0 min 0 W/m 16,1 km/h (3 Bft) 97,87 %
27.10.2020 02:06 9,1 C 8,3 C 7,2 C 90 % 1004,1 hPa 0,0 l/m 0 min 0 min 0 W/m 12,9 km/h (3 Bft) 100,00 %
27.10.2020 02:08 9,1 C 8,3 C 7,2 C 90 % 1004,1 hPa 0,0 l/m 0 min 0 min 0 W/m 16,1 km/h (3 Bft) 100,00 %
27.10.2020 02:10 9,1 C 7,8 C 7,2 C 90 % 1004,1 hPa 0,0 l/m 0 min 0 min 0 W/m 3,2 km/h (1 Bft) 100,00 %
27.10.2020 02:12 9,1 C 7,8 C 7,2 C 90 % 1004,1 hPa 0,0 l/m 0 min 0 min 0 W/m 6,4 km/h (2 Bft) 100,00 %
27.10.2020 02:14 9,1 C 7,8 C 7,2 C 90 % 1004,2 hPa 0,0 l/m 0 min 0 min 0 W/m 6,4 km/h (2 Bft) 100,00 %
27.10.2020 02:16 9,0 C 7,8 C 7,2 C 90 % 1004,2 hPa 0,0 l/m 0 min 0 min 0 W/m 3,2 km/h (1 Bft) 100,00 %
27.10.2020 02:18 9,0 C 7,8 C 7,2 C 90 % 1004,1 hPa 0,0 l/m 0 min 0 min 0 W/m 19,3 km/h (3 Bft) 97,87 %
27.10.2020 02:20 9,0 C 7,8 C 7,2 C 90 % 1004,2 hPa 0,0 l/m 0 min 0 min 0 W/m 12,9 km/h (3 Bft) 100,00 %
27.10.2020 02:22 9,0 C 7,8 C 7,2 C 90 % 1004,2 hPa 0,0 l/m 0 min 0 min 0 W/m 12,9 km/h (3 Bft) 97,87 %
27.10.2020 02:24 9,0 C 7,8 C 7,2 C 90 % 1004,2 hPa 0,0 l/m 0 min 0 min 0 W/m 12,9 km/h (3 Bft) 100,00 %
27.10.2020 02:26 8,9 C 7,8 C 7,2 C 90 % 1004,1 hPa 0,0 l/m 0 min 0 min 0 W/m 16,1 km/h (3 Bft) 100,00 %
27.10.2020 02:28 8,9 C 7,8 C 7,2 C 90 % 1004,0 hPa 0,0 l/m 0 min 0 min 0 W/m 6,4 km/h (2 Bft) 100,00 %
27.10.2020 02:30 8,9 C 7,8 C 7,2 C 90 % 1004,1 hPa 0,0 l/m 0 min 0 min 0 W/m 16,1 km/h (3 Bft) 100,00 %
27.10.2020 02:32 8,9 C 7,8 C 7,2 C 90 % 1004,1 hPa 0,0 l/m 0 min 0 min 0 W/m 12,9 km/h (3 Bft) 100,00 %
27.10.2020 02:34 8,9 C 7,8 C 7,2 C 90 % 1004,1 hPa 0,0 l/m 0 min 0 min 0 W/m 3,2 km/h (1 Bft) 100,00 %
27.10.2020 02:36 8,9 C 7,8 C 7,2 C 90 % 1004,1 hPa 0,0 l/m 0 min 0 min 0 W/m 6,4 km/h (2 Bft) 100,00 %
27.10.2020 02:38 8,8 C 7,8 C 7,2 C 91 % 1004,1 hPa 0,0 l/m 0 min 0 min 0 W/m 6,4 km/h (2 Bft) 100,00 %
27.10.2020 02:40 8,8 C 7,8 C 7,2 C 91 % 1004,1 hPa 0,0 l/m 0 min 0 min 0 W/m 6,4 km/h (2 Bft) 95,74 %
27.10.2020 02:42 8,8 C 7,8 C 7,2 C 91 % 1004,1 hPa 0,0 l/m 0 min 0 min 0 W/m 12,9 km/h (3 Bft) 100,00 %
27.10.2020 02:44 8,8 C 7,8 C 7,2 C 91 % 1004,1 hPa 0,0 l/m 0 min 0 min 0 W/m 12,9 km/h (3 Bft) 100,00 %
27.10.2020 02:46 8,8 C 7,8 C 7,2 C 91 % 1004,1 hPa 0,0 l/m 0 min 0 min 0 W/m 12,9 km/h (3 Bft) 100,00 %
27.10.2020 02:48 8,8 C 7,8 C 7,2 C 91 % 1004,2 hPa 0,0 l/m 0 min 0 min 0 W/m 6,4 km/h (2 Bft) 95,74 %
27.10.2020 02:50 8,7 C 7,8 C 7,2 C 91 % 1004,1 hPa 0,0 l/m 0 min 0 min 0 W/m 3,2 km/h (1 Bft) 97,83 %
27.10.2020 02:52 8,7 C 7,8 C 7,2 C 91 % 1004,2 hPa 0,0 l/m 0 min 0 min 0 W/m 9,7 km/h (2 Bft) 97,87 %
27.10.2020 02:54 8,7 C 7,8 C 7,2 C 91 % 1004,1 hPa 0,0 l/m 0 min 0 min 0 W/m 6,4 km/h (2 Bft) 97,87 %
27.10.2020 02:56 8,7 C 8,3 C 7,2 C 91 % 1004,2 hPa 0,0 l/m 0 min 0 min 0 W/m 6,4 km/h (2 Bft) 97,87 %
27.10.2020 02:58 8,8 C 8,3 C 7,2 C 91 % 1004,2 hPa 0,0 l/m 0 min 0 min 0 W/m 9,7 km/h (2 Bft) 97,87 %
27.10.2020 03:00 8,8 C 8,3 C 7,2 C 91 % 1004,2 hPa 0,0 l/m 0 min 0 min 0 W/m 6,4 km/h (2 Bft) 97,83 %
27.10.2020 03:02 8,7 C 8,3 C 7,2 C 92 % 1004,2 hPa 0,0 l/m 0 min 0 min 0 W/m 6,4 km/h (2 Bft) 97,87 %
27.10.2020 03:04 8,7 C 7,8 C 7,2 C 92 % 1004,2 hPa 0,0 l/m 0 min 0 min 0 W/m 9,7 km/h (2 Bft) 97,87 %
27.10.2020 03:06 8,7 C 7,8 C 7,2 C 92 % 1004,2 hPa 0,0 l/m 0 min 0 min 0 W/m 3,2 km/h (1 Bft) 97,87 %
27.10.2020 03:08 8,7 C 7,8 C 7,2 C 92 % 1004,2 hPa 0,0 l/m 0 min 0 min 0 W/m 6,4 km/h (2 Bft) 97,87 %
27.10.2020 03:10 8,7 C 7,8 C 7,2 C 92 % 1004,2 hPa 0,0 l/m 0 min 0 min 0 W/m 6,4 km/h (2 Bft) 95,74 %
27.10.2020 03:12 8,7 C 7,8 C 7,2 C 92 % 1004,2 hPa 0,0 l/m 0 min 0 min 0 W/m 16,1 km/h (3 Bft) 95,65 %
27.10.2020 03:14 8,7 C 7,8 C 7,2 C 92 % 1004,2 hPa 0,0 l/m 0 min 0 min 0 W/m 12,9 km/h (3 Bft) 95,74 %
27.10.2020 03:16 8,7 C 7,8 C 7,2 C 92 % 1004,2 hPa 0,0 l/m 0 min 0 min 0 W/m 12,9 km/h (3 Bft) 97,87 %
27.10.2020 03:18 8,7 C 7,8 C 7,2 C 92 % 1004,2 hPa 0,0 l/m 0 min 0 min 0 W/m 0,0 km/h (0 Bft) 97,87 %
27.10.2020 03:20 8,7 C 7,8 C 7,2 C 92 % 1004,3 hPa 0,0 l/m 0 min 0 min 0 W/m 12,9 km/h (3 Bft) 97,87 %
27.10.2020 03:22 8,7 C 7,8 C 7,2 C 92 % 1004,2 hPa 0,0 l/m 0 min 0 min 0 W/m 3,2 km/h (1 Bft) 97,87 %
27.10.2020 03:24 8,7 C 7,8 C 7,2 C 92 % 1004,3 hPa 0,0 l/m 0 min 0 min 0 W/m 12,9 km/h (3 Bft) 97,83 %
27.10.2020 03:26 8,7 C 7,8 C 7,2 C 92 % 1004,3 hPa 0,0 l/m 0 min 0 min 0 W/m 12,9 km/h (3 Bft) 95,74 %
27.10.2020 03:28 8,7 C 7,8 C 7,2 C 92 % 1004,3 hPa 0,0 l/m 0 min 0 min 0 W/m 12,9 km/h (3 Bft) 97,87 %
27.10.2020 03:30 8,6 C 7,8 C 7,2 C 92 % 1004,3 hPa 0,0 l/m 0 min 0 min 0 W/m 6,4 km/h (2 Bft) 100,00 %
27.10.2020 03:32 8,6 C 7,8 C 7,2 C 92 % 1004,3 hPa 0,0 l/m 0 min 0 min 0 W/m 12,9 km/h (3 Bft) 100,00 %
27.10.2020 03:34 8,6 C 7,8 C 7,2 C 92 % 1004,3 hPa 0,0 l/m 0 min 0 min 0 W/m 12,9 km/h (3 Bft) 95,65 %
27.10.2020 03:36 8,6 C 7,8 C 7,2 C 92 % 1004,3 hPa 0,0 l/m 0 min 0 min 0 W/m 6,4 km/h (2 Bft) 100,00 %
27.10.2020 03:38 8,7 C 8,3 C 7,2 C 92 % 1004,3 hPa 0,0 l/m 0 min 0 min 0 W/m 6,4 km/h (2 Bft) 100,00 %
27.10.2020 03:40 8,7 C 8,3 C 7,2 C 92 % 1004,2 hPa 0,0 l/m 0 min 0 min 0 W/m 12,9 km/h (3 Bft) 100,00 %
27.10.2020 03:42 8,7 C 8,3 C 7,2 C 92 % 1004,2 hPa 0,0 l/m 0 min 0 min 0 W/m 6,4 km/h (2 Bft) 97,87 %
27.10.2020 03:44 8,7 C 8,3 C 7,2 C 93 % 1004,3 hPa 0,0 l/m 0 min 0 min 0 W/m 3,2 km/h (1 Bft) 100,00 %
27.10.2020 03:46 8,7 C 8,3 C 7,2 C 93 % 1004,3 hPa 0,0 l/m 0 min 0 min 0 W/m 12,9 km/h (3 Bft) 100,00 %
27.10.2020 03:48 8,7 C 8,3 C 7,8 C 93 % 1004,3 hPa 0,0 l/m 0 min 0 min 0 W/m 3,2 km/h (1 Bft) 97,87 %
27.10.2020 03:50 8,8 C 8,3 C 7,8 C 93 % 1004,2 hPa 0,0 l/m 0 min 0 min 0 W/m 6,4 km/h (2 Bft) 100,00 %
27.10.2020 03:52 8,8 C 8,3 C 7,8 C 93 % 1004,2 hPa 0,0 l/m 0 min 0 min 0 W/m 3,2 km/h (1 Bft) 100,00 %
27.10.2020 03:54 8,8 C 8,3 C 7,8 C 93 % 1004,2 hPa 0,0 l/m 0 min 0 min 0 W/m 6,4 km/h (2 Bft) 100,00 %
27.10.2020 03:56 8,8 C 8,3 C 7,8 C 93 % 1004,2 hPa 0,0 l/m 0 min 0 min 0 W/m 16,1 km/h (3 Bft) 97,87 %
27.10.2020 03:58 8,8 C 8,3 C 7,8 C 93 % 1004,2 hPa 0,0 l/m 0 min 0 min 0 W/m 16,1 km/h (3 Bft) 97,87 %
27.10.2020 04:00 8,8 C 8,3 C 7,8 C 93 % 1004,3 hPa 0,0 l/m 0 min 0 min 0 W/m 9,7 km/h (2 Bft) 97,87 %
27.10.2020 04:02 8,8 C 8,3 C 7,8 C 93 % 1004,3 hPa 0,0 l/m 0 min 0 min 0 W/m 16,1 km/h (3 Bft) 100,00 %
27.10.2020 04:04 8,9 C 8,3 C 7,8 C 93 % 1004,3 hPa 0,0 l/m 0 min 0 min 0 W/m 3,2 km/h (1 Bft) 95,74 %
27.10.2020 04:06 8,9 C 8,3 C 7,8 C 93 % 1004,3 hPa 0,0 l/m 0 min 0 min 0 W/m 9,7 km/h (2 Bft) 97,87 %
27.10.2020 04:08 8,9 C 8,3 C 7,8 C 93 % 1004,3 hPa 0,0 l/m 0 min 0 min 0 W/m 16,1 km/h (3 Bft) 97,87 %
27.10.2020 04:10 8,9 C 8,9 C 7,8 C 93 % 1004,4 hPa 0,0 l/m 0 min 0 min 0 W/m 16,1 km/h (3 Bft) 95,74 %
27.10.2020 04:12 8,9 C 8,9 C 7,8 C 93 % 1004,3 hPa 0,0 l/m 0 min 0 min 0 W/m 12,9 km/h (3 Bft) 97,83 %
27.10.2020 04:14 9,0 C 8,9 C 7,8 C 93 % 1004,4 hPa 0,0 l/m 0 min 0 min 0 W/m 16,1 km/h (3 Bft) 97,87 %
27.10.2020 04:16 9,0 C 8,9 C 7,8 C 93 % 1004,4 hPa 0,0 l/m 0 min 0 min 0 W/m 12,9 km/h (3 Bft) 97,87 %
27.10.2020 04:18 9,0 C 8,9 C 7,8 C 93 % 1004,4 hPa 0,0 l/m 0 min 0 min 0 W/m 3,2 km/h (1 Bft) 97,87 %
27.10.2020 04:20 9,0 C 8,9 C 7,8 C 93 % 1004,4 hPa 0,0 l/m 0 min 0 min 0 W/m 22,5 km/h (4 Bft) 95,74 %
27.10.2020 04:22 9,0 C 8,9 C 7,8 C 93 % 1004,4 hPa 0,0 l/m 0 min 0 min 0 W/m 6,4 km/h (2 Bft) 93,48 %
27.10.2020 04:24 9,1 C 8,9 C 7,8 C 93 % 1004,4 hPa 0,0 l/m 0 min 0 min 0 W/m 6,4 km/h (2 Bft) 93,62 %
27.10.2020 04:26 9,1 C 8,9 C 7,8 C 93 % 1004,4 hPa 0,0 l/m 0 min 0 min 0 W/m 12,9 km/h (3 Bft) 95,74 %
27.10.2020 04:28 9,1 C 8,9 C 7,8 C 93 % 1004,4 hPa 0,0 l/m 0 min 0 min 0 W/m 16,1 km/h (3 Bft) 95,74 %
27.10.2020 04:30 9,1 C 8,9 C 7,8 C 93 % 1004,4 hPa 0,0 l/m 0 min 0 min 0 W/m 3,2 km/h (1 Bft) 95,74 %
27.10.2020 04:32 9,2 C 8,9 C 7,8 C 93 % 1004,3 hPa 0,0 l/m 0 min 0 min 0 W/m 6,4 km/h (2 Bft) 95,74 %
27.10.2020 04:34 9,2 C 8,9 C 7,8 C 92 % 1004,4 hPa 0,0 l/m 0 min 0 min 0 W/m 16,1 km/h (3 Bft) 95,65 %
27.10.2020 04:36 9,2 C 8,9 C 7,8 C 92 % 1004,4 hPa 0,0 l/m 0 min 0 min 0 W/m 16,1 km/h (3 Bft) 95,74 %
27.10.2020 04:38 9,3 C 8,9 C 7,8 C 92 % 1004,4 hPa 0,0 l/m 0 min 0 min 0 W/m 12,9 km/h (3 Bft) 95,74 %
27.10.2020 04:40 9,3 C 8,9 C 7,8 C 92 % 1004,4 hPa 0,0 l/m 0 min 0 min 0 W/m 19,3 km/h (3 Bft) 93,62 %
27.10.2020 04:42 9,3 C 8,9 C 7,8 C 92 % 1004,4 hPa 0,0 l/m 0 min 0 min 0 W/m 16,1 km/h (3 Bft) 97,87 %
27.10.2020 04:44 9,3 C 8,9 C 7,8 C 92 % 1004,4 hPa 0,0 l/m 0 min 0 min 0 W/m 22,5 km/h (4 Bft) 97,87 %
27.10.2020 04:46 9,3 C 8,9 C 7,8 C 92 % 1004,4 hPa 0,0 l/m 0 min 0 min 0 W/m 19,3 km/h (3 Bft) 97,83 %
27.10.2020 04:48 9,3 C 8,9 C 7,8 C 92 % 1004,5 hPa 0,0 l/m 0 min 0 min 0 W/m 25,7 km/h (4 Bft) 97,96 %
27.10.2020 04:50 9,3 C 8,9 C 7,8 C 92 % 1004,5 hPa 0,0 l/m 0 min 0 min 0 W/m 22,5 km/h (4 Bft) 95,74 %
27.10.2020 04:52 9,3 C 8,9 C 7,8 C 92 % 1004,5 hPa 0,0 l/m 0 min 0 min 0 W/m 16,1 km/h (3 Bft) 95,74 %
27.10.2020 04:54 9,3 C 8,9 C 7,8 C 92 % 1004,5 hPa 0,0 l/m 0 min 0 min 0 W/m 19,3 km/h (3 Bft) 97,87 %
27.10.2020 04:56 9,3 C 8,9 C 7,8 C 92 % 1004,5 hPa 0,0 l/m 0 min 0 min 0 W/m 12,9 km/h (3 Bft) 97,83 %
27.10.2020 04:58 9,3 C 8,3 C 7,8 C 92 % 1004,5 hPa 0,0 l/m 0 min 0 min 0 W/m 12,9 km/h (3 Bft) 97,87 %
27.10.2020 05:00 9,3 C 8,3 C 7,8 C 91 % 1004,6 hPa 0,0 l/m 0 min 0 min 0 W/m 16,1 km/h (3 Bft) 97,87 %
27.10.2020 05:02 9,3 C 8,3 C 7,8 C 91 % 1004,5 hPa 0,0 l/m 0 min 0 min 0 W/m 12,9 km/h (3 Bft) 97,92 %
27.10.2020 05:04 9,3 C 8,3 C 7,8 C 91 % 1004,5 hPa 0,0 l/m 0 min 0 min 0 W/m 12,9 km/h (3 Bft) 97,87 %
27.10.2020 05:06 9,3 C 8,3 C 7,8 C 91 % 1004,4 hPa 0,0 l/m 0 min 0 min 0 W/m 6,4 km/h (2 Bft) 95,74 %
27.10.2020 05:08 9,3 C 8,3 C 7,8 C 91 % 1004,4 hPa 0,0 l/m 0 min 0 min 0 W/m 16,1 km/h (3 Bft) 97,83 %
27.10.2020 05:10 9,3 C 8,3 C 7,8 C 91 % 1004,5 hPa 0,0 l/m 0 min 0 min 0 W/m 12,9 km/h (3 Bft) 93,62 %
27.10.2020 05:12 9,3 C 8,3 C 7,8 C 91 % 1004,5 hPa 0,0 l/m 0 min 0 min 0 W/m 16,1 km/h (3 Bft) 97,87 %
27.10.2020 05:14 9,2 C 8,3 C 7,8 C 91 % 1004,5 hPa 0,0 l/m 0 min 0 min 0 W/m 3,2 km/h (1 Bft) 95,74 %
27.10.2020 05:16 9,2 C 8,3 C 7,2 C 91 % 1004,5 hPa 0,0 l/m 0 min 0 min 0 W/m 6,4 km/h (2 Bft) 93,62 %
27.10.2020 05:18 9,2 C 8,3 C 7,2 C 91 % 1004,4 hPa 0,0 l/m 0 min 0 min 0 W/m 19,3 km/h (3 Bft) 97,87 %
27.10.2020 05:20 9,2 C 8,3 C 7,2 C 91 % 1004,5 hPa 0,0 l/m 0 min 0 min 0 W/m 19,3 km/h (3 Bft) 93,48 %
27.10.2020 05:22 9,1 C 8,3 C 7,2 C 91 % 1004,5 hPa 0,0 l/m 0 min 0 min 0 W/m 16,1 km/h (3 Bft) 100,00 %
27.10.2020 05:24 9,1 C 8,3 C 7,2 C 91 % 1004,6 hPa 0,0 l/m 0 min 0 min 0 W/m 6,4 km/h (2 Bft) 95,74 %
27.10.2020 05:26 9,1 C 8,3 C 7,2 C 91 % 1004,6 hPa 0,0 l/m 0 min 0 min 0 W/m 19,3 km/h (3 Bft) 95,74 %
27.10.2020 05:28 9,1 C 8,3 C 7,8 C 91 % 1004,6 hPa 0,0 l/m 0 min 0 min 0 W/m 12,9 km/h (3 Bft) 91,49 %
27.10.2020 05:30 9,1 C 8,3 C 7,8 C 91 % 1004,6 hPa 0,0 l/m 0 min 0 min 0 W/m 6,4 km/h (2 Bft) 58,54 %
27.10.2020 05:32 9,1 C 8,3 C 7,8 C 91 % 1004,6 hPa 0,0 l/m 0 min 0 min 0 W/m 12,9 km/h (3 Bft) 97,87 %
27.10.2020 05:34 9,1 C 8,3 C 7,8 C 91 % 1004,6 hPa 0,0 l/m 0 min 0 min 0 W/m 16,1 km/h (3 Bft) 95,74 %
27.10.2020 05:36 9,1 C 8,3 C 7,8 C 91 % 1004,7 hPa 0,0 l/m 0 min 0 min 0 W/m 16,1 km/h (3 Bft) 97,87 %
27.10.2020 05:38 9,1 C 8,3 C 7,8 C 91 % 1004,7 hPa 0,0 l/m 0 min 0 min 0 W/m 9,7 km/h (2 Bft) 97,87 %
27.10.2020 05:40 9,1 C 8,3 C 7,8 C 91 % 1004,7 hPa 0,0 l/m 0 min 0 min 0 W/m 0,0 km/h (0 Bft) 97,87 %
27.10.2020 05:42 9,1 C 8,3 C 7,2 C 91 % 1004,7 hPa 0,0 l/m 0 min 0 min 0 W/m 6,4 km/h (2 Bft) 97,83 %
27.10.2020 05:44 9,0 C 8,3 C 7,2 C 91 % 1004,7 hPa 0,0 l/m 0 min 0 min 0 W/m 6,4 km/h (2 Bft) 95,74 %
27.10.2020 05:46 9,0 C 8,3 C 7,2 C 91 % 1004,8 hPa 0,0 l/m 0 min 0 min 0 W/m 12,9 km/h (3 Bft) 97,87 %
27.10.2020 05:48 9,0 C 8,3 C 7,2 C 91 % 1004,8 hPa 0,0 l/m 0 min 0 min 0 W/m 16,1 km/h (3 Bft) 97,87 %
27.10.2020 05:50 9,0 C 8,3 C 7,8 C 91 % 1004,8 hPa 0,0 l/m 0 min 0 min 0 W/m 19,3 km/h (3 Bft) 97,92 %
27.10.2020 05:52 9,0 C 8,3 C 7,8 C 91 % 1004,8 hPa 0,0 l/m 0 min 0 min 0 W/m 12,9 km/h (3 Bft) 97,87 %
27.10.2020 05:54 9,0 C 8,3 C 7,2 C 91 % 1004,8 hPa 0,0 l/m 0 min 0 min 0 W/m 12,9 km/h (3 Bft) 97,87 %
27.10.2020 05:56 9,0 C 8,3 C 7,2 C 91 % 1004,9 hPa 0,0 l/m 0 min 0 min 0 W/m 3,2 km/h (1 Bft) 95,74 %
27.10.2020 05:58 9,0 C 8,3 C 7,2 C 91 % 1004,8 hPa 0,0 l/m 0 min 0 min 0 W/m 3,2 km/h (1 Bft) 97,83 %
27.10.2020 06:00 9,0 C 7,8 C 7,2 C 91 % 1004,9 hPa 0,0 l/m 0 min 0 min 0 W/m 16,1 km/h (3 Bft) 97,87 %
27.10.2020 06:02 9,0 C 7,8 C 7,2 C 91 % 1004,9 hPa 0,0 l/m 0 min 0 min 0 W/m 6,4 km/h (2 Bft) 95,74 %
27.10.2020 06:04 9,0 C 8,3 C 7,2 C 91 % 1004,9 hPa 0,0 l/m 0 min 0 min 0 W/m 6,4 km/h (2 Bft) 95,74 %
27.10.2020 06:08 8,9 C 8,3 C 7,2 C 91 % 1005,0 hPa 0,0 l/m 0 min 0 min 0 W/m 6,4 km/h (2 Bft) 95,74 %
27.10.2020 06:10 8,9 C 7,8 C 7,2 C 91 % 1004,9 hPa 0,0 l/m 0 min 0 min 0 W/m 6,4 km/h (2 Bft) 100,00 %
27.10.2020 06:12 8,9 C 7,8 C 7,2 C 91 % 1004,9 hPa 0,0 l/m 0 min 0 min 0 W/m 16,1 km/h (3 Bft) 97,87 %
27.10.2020 06:14 8,9 C 7,8 C 7,2 C 91 % 1004,9 hPa 0,0 l/m 0 min 0 min 0 W/m 12,9 km/h (3 Bft) 100,00 %
27.10.2020 06:16 8,9 C 8,3 C 7,2 C 91 % 1005,0 hPa 0,0 l/m 0 min 0 min 0 W/m 12,9 km/h (3 Bft) 100,00 %
27.10.2020 06:18 8,9 C 7,8 C 7,2 C 91 % 1005,0 hPa 0,0 l/m 0 min 0 min 0 W/m 12,9 km/h (3 Bft) 100,00 %
27.10.2020 06:20 8,9 C 7,8 C 7,2 C 91 % 1005,0 hPa 0,0 l/m 0 min 0 min 0 W/m 6,4 km/h (2 Bft) 100,00 %
27.10.2020 06:22 8,8 C 7,8 C 7,2 C 91 % 1005,0 hPa 0,0 l/m 0 min 0 min 0 W/m 6,4 km/h (2 Bft) 97,87 %
27.10.2020 06:24 8,8 C 7,8 C 7,2 C 91 % 1005,1 hPa 0,0 l/m 0 min 0 min 0 W/m 3,2 km/h (1 Bft) 100,00 %
27.10.2020 06:26 8,8 C 7,8 C 7,2 C 91 % 1005,1 hPa 0,0 l/m 0 min 0 min 0 W/m 12,9 km/h (3 Bft) 100,00 %
27.10.2020 06:28 8,8 C 7,8 C 7,2 C 91 % 1005,2 hPa 0,0 l/m 0 min 0 min 0 W/m 9,7 km/h (2 Bft) 100,00 %
27.10.2020 06:30 8,8 C 7,8 C 7,2 C 91 % 1005,2 hPa 0,0 l/m 0 min 0 min 0 W/m 3,2 km/h (1 Bft) 100,00 %
27.10.2020 06:32 8,8 C 7,8 C 7,2 C 91 % 1005,3 hPa 0,0 l/m 0 min 0 min 0 W/m 0,0 km/h (0 Bft) 100,00 %
27.10.2020 06:34 8,8 C 7,8 C 7,2 C 91 % 1005,2 hPa 0,0 l/m 0 min 0 min 0 W/m 0,0 km/h (0 Bft) 100,00 %
27.10.2020 06:36 8,8 C 7,8 C 7,2 C 91 % 1005,2 hPa 0,0 l/m 0 min 0 min 0 W/m 9,7 km/h (2 Bft) 100,00 %
27.10.2020 06:38 8,8 C 7,8 C 7,2 C 91 % 1005,2 hPa 0,0 l/m 0 min 0 min 0 W/m 9,7 km/h (2 Bft) 95,74 %
27.10.2020 06:40 8,8 C 7,8 C 7,2 C 91 % 1005,2 hPa 0,0 l/m 0 min 0 min 0 W/m 0,0 km/h (0 Bft) 100,00 %
27.10.2020 06:42 8,8 C 7,8 C 7,2 C 91 % 1005,3 hPa 0,0 l/m 0 min 0 min 0 W/m 0,0 km/h (0 Bft) 95,74 %
27.10.2020 06:44 8,7 C 7,8 C 7,2 C 91 % 1005,3 hPa 0,0 l/m 0 min 0 min 0 W/m 6,4 km/h (2 Bft) 97,83 %
27.10.2020 06:46 8,7 C 7,8 C 7,2 C 91 % 1005,4 hPa 0,0 l/m 0 min 0 min 0 W/m 6,4 km/h (2 Bft) 97,87 %
27.10.2020 06:48 8,7 C 7,8 C 7,2 C 91 % 1005,3 hPa 0,0 l/m 0 min 0 min 0 W/m 3,2 km/h (1 Bft) 97,87 %
27.10.2020 06:50 8,7 C 7,8 C 7,2 C 92 % 1005,4 hPa 0,0 l/m 0 min 0 min 0 W/m 16,1 km/h (3 Bft) 97,87 %
27.10.2020 06:52 8,7 C 7,8 C 7,2 C 92 % 1005,4 hPa 0,0 l/m 0 min 0 min 0 W/m 6,4 km/h (2 Bft) 95,65 %
27.10.2020 06:54 8,7 C 7,8 C 7,2 C 92 % 1005,4 hPa 0,0 l/m 0 min 0 min 0 W/m 12,9 km/h (3 Bft) 95,74 %
27.10.2020 06:56 8,7 C 7,8 C 7,2 C 92 % 1005,4 hPa 0,0 l/m 0 min 0 min 0 W/m 12,9 km/h (3 Bft) 95,74 %
27.10.2020 06:58 8,7 C 7,8 C 7,2 C 92 % 1005,5 hPa 0,0 l/m 0 min 0 min 0 W/m 6,4 km/h (2 Bft) 97,87 %
27.10.2020 07:00 8,6 C 7,8 C 7,2 C 92 % 1005,4 hPa 0,0 l/m 0 min 0 min 0 W/m 12,9 km/h (3 Bft) 95,74 %
27.10.2020 07:02 8,6 C 7,8 C 7,2 C 92 % 1005,4 hPa 0,0 l/m 0 min 0 min 0 W/m 6,4 km/h (2 Bft) 97,87 %
27.10.2020 07:04 8,6 C 7,8 C 7,2 C 92 % 1005,4 hPa 0,0 l/m 0 min 0 min 0 W/m 16,1 km/h (3 Bft) 91,49 %
27.10.2020 07:06 8,6 C 7,8 C 7,2 C 92 % 1005,4 hPa 0,0 l/m 0 min 0 min 0 W/m 12,9 km/h (3 Bft) 54,05 %
27.10.2020 07:08 8,6 C 7,8 C 7,2 C 92 % 1005,4 hPa 0,0 l/m 0 min 0 min 0 W/m 0,0 km/h (0 Bft) 97,83 %
27.10.2020 07:10 8,6 C 7,8 C 7,2 C 92 % 1005,5 hPa 0,0 l/m 0 min 0 min 0 W/m 12,9 km/h (3 Bft) 97,87 %
27.10.2020 07:12 8,6 C 7,8 C 7,2 C 92 % 1005,5 hPa 0,0 l/m 0 min 0 min 0 W/m 16,1 km/h (3 Bft) 95,74 %
27.10.2020 07:14 8,6 C 7,8 C 7,2 C 92 % 1005,5 hPa 0,0 l/m 0 min 0 min 0 W/m 3,2 km/h (1 Bft) 95,74 %
27.10.2020 07:16 8,6 C 7,8 C 7,2 C 92 % 1005,6 hPa 0,0 l/m 0 min 0 min 0 W/m 19,3 km/h (3 Bft) 95,74 %
27.10.2020 07:18 8,6 C 7,8 C 7,2 C 92 % 1005,6 hPa 0,0 l/m 0 min 0 min 0 W/m 16,1 km/h (3 Bft) 95,74 %
27.10.2020 07:20 8,6 C 7,8 C 7,2 C 92 % 1005,6 hPa 0,0 l/m 0 min 0 min 0 W/m 6,4 km/h (2 Bft) 97,83 %
27.10.2020 07:22 8,6 C 7,8 C 7,2 C 92 % 1005,6 hPa 0,0 l/m 0 min 0 min 2 W/m 3,2 km/h (1 Bft) 97,87 %
27.10.2020 07:24 8,6 C 8,3 C 7,2 C 92 % 1005,5 hPa 0,0 l/m 0 min 0 min 5 W/m 0,0 km/h (0 Bft) 97,87 %
27.10.2020 07:26 8,6 C 8,3 C 7,2 C 93 % 1005,5 hPa 0,0 l/m 0 min 0 min 5 W/m 3,2 km/h (1 Bft) 97,87 %
27.10.2020 07:28 8,6 C 8,3 C 7,2 C 93 % 1005,5 hPa 0,0 l/m 0 min 0 min 5 W/m 16,1 km/h (3 Bft) 97,87 %
27.10.2020 07:30 8,6 C 8,3 C 7,2 C 93 % 1005,6 hPa 0,0 l/m 0 min 0 min 5 W/m 12,9 km/h (3 Bft) 97,83 %
27.10.2020 07:32 8,7 C 8,3 C 7,2 C 93 % 1005,6 hPa 0,0 l/m 0 min 0 min 7 W/m 12,9 km/h (3 Bft) 95,74 %
27.10.2020 07:34 8,7 C 8,3 C 7,2 C 93 % 1005,6 hPa 0,0 l/m 0 min 0 min 8 W/m 16,1 km/h (3 Bft) 100,00 %
27.10.2020 07:36 8,7 C 8,3 C 7,2 C 93 % 1005,7 hPa 0,0 l/m 0 min 0 min 9 W/m 3,2 km/h (1 Bft) 100,00 %
27.10.2020 07:38 8,7 C 8,3 C 7,2 C 93 % 1005,7 hPa 0,0 l/m 0 min 0 min 9 W/m 6,4 km/h (2 Bft) 100,00 %
27.10.2020 07:40 8,7 C 8,3 C 7,2 C 93 % 1005,7 hPa 0,0 l/m 0 min 0 min 9 W/m 0,0 km/h (0 Bft) 100,00 %
27.10.2020 07:42 8,7 C 8,3 C 7,8 C 93 % 1005,7 hPa 0,0 l/m 0 min 0 min 9 W/m 6,4 km/h (2 Bft) 95,65 %
27.10.2020 07:44 8,7 C 8,3 C 7,8 C 93 % 1005,8 hPa 0,0 l/m 0 min 0 min 11 W/m 6,4 km/h (2 Bft) 100,00 %
27.10.2020 07:46 8,7 C 8,3 C 7,8 C 93 % 1005,8 hPa 0,0 l/m 0 min 0 min 8 W/m 0,0 km/h (0 Bft) 100,00 %
27.10.2020 07:48 8,7 C 8,3 C 7,8 C 93 % 1005,8 hPa 0,0 l/m 0 min 0 min 7 W/m 3,2 km/h (1 Bft) 97,87 %
27.10.2020 07:50 8,8 C 8,3 C 7,8 C 93 % 1005,8 hPa 0,0 l/m 0 min 0 min 6 W/m 6,4 km/h (2 Bft) 100,00 %
27.10.2020 07:52 8,8 C 8,3 C 7,8 C 93 % 1005,8 hPa 0,0 l/m 0 min 0 min 7 W/m 0,0 km/h (0 Bft) 97,87 %
27.10.2020 07:54 8,8 C 8,3 C 7,8 C 93 % 1005,8 hPa 0,0 l/m 0 min 0 min 7 W/m 0,0 km/h (0 Bft) 100,00 %
27.10.2020 07:56 8,8 C 8,3 C 7,8 C 93 % 1005,9 hPa 0,0 l/m 0 min 0 min 9 W/m 3,2 km/h (1 Bft) 100,00 %
27.10.2020 07:58 8,8 C 8,3 C 7,8 C 93 % 1005,9 hPa 0,0 l/m 0 min 0 min 11 W/m 0,0 km/h (0 Bft) 100,00 %
27.10.2020 08:00 8,8 C 8,3 C 7,8 C 93 % 1005,9 hPa 0,0 l/m 0 min 0 min 12 W/m 3,2 km/h (1 Bft) 100,00 %
27.10.2020 08:02 8,8 C 8,3 C 7,8 C 93 % 1005,9 hPa 0,0 l/m 0 min 0 min 12 W/m 0,0 km/h (0 Bft) 97,87 %
27.10.2020 08:04 8,8 C 8,3 C 7,8 C 93 % 1005,9 hPa 0,0 l/m 0 min 0 min 12 W/m 0,0 km/h (0 Bft) 97,87 %
27.10.2020 08:06 8,8 C 8,3 C 7,8 C 93 % 1006,0 hPa 0,0 l/m 0 min 0 min 12 W/m 0,0 km/h (0 Bft) 95,65 %
27.10.2020 08:08 8,8 C 8,3 C 7,8 C 93 % 1006,0 hPa 0,0 l/m 0 min 0 min 14 W/m 3,2 km/h (1 Bft) 97,87 %
27.10.2020 08:10 8,8 C 8,3 C 7,8 C 93 % 1006,0 hPa 0,0 l/m 0 min 0 min 19 W/m 0,0 km/h (0 Bft) 97,87 %
27.10.2020 08:12 8,8 C 8,9 C 7,8 C 93 % 1006,1 hPa 0,0 l/m 0 min 0 min 19 W/m 3,2 km/h (1 Bft) 95,74 %
27.10.2020 08:14 8,9 C 8,9 C 7,8 C 93 % 1006,0 hPa 0,0 l/m 0 min 0 min 19 W/m 6,4 km/h (2 Bft) 97,87 %
27.10.2020 08:16 8,9 C 8,9 C 7,8 C 93 % 1006,1 hPa 0,0 l/m 0 min 0 min 19 W/m 16,1 km/h (3 Bft) 97,83 %
27.10.2020 08:18 8,9 C 8,9 C 7,8 C 93 % 1006,1 hPa 0,0 l/m 0 min 0 min 21 W/m 12,9 km/h (3 Bft) 95,74 %
27.10.2020 08:20 8,9 C 8,9 C 7,8 C 93 % 1006,0 hPa 0,0 l/m 0 min 0 min 29 W/m 12,9 km/h (3 Bft) 93,62 %
27.10.2020 08:22 8,9 C 8,9 C 7,8 C 93 % 1006,1 hPa 0,0 l/m 0 min 0 min 32 W/m 3,2 km/h (1 Bft) 93,62 %
27.10.2020 08:24 8,9 C 8,9 C 7,8 C 93 % 1006,1 hPa 0,0 l/m 0 min 0 min 31 W/m 16,1 km/h (3 Bft) 91,49 %
27.10.2020 08:26 8,9 C 8,9 C 7,8 C 92 % 1006,2 hPa 0,0 l/m 0 min 0 min 30 W/m 16,1 km/h (3 Bft) 95,74 %
27.10.2020 08:28 8,9 C 8,9 C 7,8 C 92 % 1006,2 hPa 0,0 l/m 0 min 0 min 30 W/m 6,4 km/h (2 Bft) 95,65 %
27.10.2020 08:30 8,9 C 8,9 C 7,8 C 92 % 1006,2 hPa 0,0 l/m 0 min 0 min 34 W/m 12,9 km/h (3 Bft) 93,62 %
27.10.2020 08:32 9,0 C 8,9 C 7,8 C 92 % 1006,2 hPa 0,0 l/m 0 min 0 min 44 W/m 3,2 km/h (1 Bft) 93,62 %
27.10.2020 08:34 9,0 C 8,9 C 7,8 C 92 % 1006,2 hPa 0,0 l/m 0 min 0 min 49 W/m 6,4 km/h (2 Bft) 95,74 %
27.10.2020 08:36 9,0 C 8,9 C 7,8 C 92 % 1006,2 hPa 0,0 l/m 0 min 0 min 40 W/m 3,2 km/h (1 Bft) 93,62 %
27.10.2020 08:38 9,0 C 8,9 C 7,8 C 92 % 1006,2 hPa 0,0 l/m 0 min 0 min 38 W/m 3,2 km/h (1 Bft) 95,74 %
27.10.2020 08:40 9,0 C 8,9 C 7,8 C 92 % 1006,2 hPa 0,0 l/m 0 min 0 min 41 W/m 9,7 km/h (2 Bft) 95,65 %
27.10.2020 08:42 9,0 C 8,9 C 7,8 C 92 % 1006,1 hPa 0,0 l/m 0 min 0 min 40 W/m 16,1 km/h (3 Bft) 91,49 %
27.10.2020 08:44 9,0 C 8,9 C 7,8 C 92 % 1006,2 hPa 0,0 l/m 0 min 0 min 40 W/m 16,1 km/h (3 Bft) 93,62 %
27.10.2020 08:46 9,0 C 8,9 C 7,8 C 92 % 1006,1 hPa 0,0 l/m 0 min 0 min 42 W/m 12,9 km/h (3 Bft) 95,74 %
27.10.2020 08:48 9,0 C 8,9 C 7,8 C 92 % 1006,1 hPa 0,0 l/m 0 min 0 min 46 W/m 12,9 km/h (3 Bft) 95,74 %
27.10.2020 08:50 9,0 C 8,9 C 7,8 C 92 % 1006,1 hPa 0,0 l/m 0 min 0 min 51 W/m 3,2 km/h (1 Bft) 97,87 %
27.10.2020 08:52 9,0 C 9,4 C 7,8 C 92 % 1006,1 hPa 0,0 l/m 0 min 0 min 54 W/m 16,1 km/h (3 Bft) 97,83 %
27.10.2020 08:54 9,0 C 9,4 C 7,8 C 92 % 1006,2 hPa 0,0 l/m 0 min 0 min 63 W/m 19,3 km/h (3 Bft) 97,87 %
27.10.2020 08:56 9,1 C 10,0 C 8,4 C 91 % 1006,1 hPa 0,0 l/m 2 min 0 min 128 W/m 6,4 km/h (2 Bft) 97,83 %
27.10.2020 08:58 9,1 C 11,1 C 8,4 C 91 % 1006,2 hPa 0,0 l/m 2 min 0 min 212 W/m 16,1 km/h (3 Bft) 97,87 %
27.10.2020 09:00 9,1 C 12,2 C 8,4 C 91 % 1006,2 hPa 0,0 l/m 2 min 0 min 218 W/m 12,9 km/h (3 Bft) 97,87 %
27.10.2020 09:02 9,2 C 13,3 C 8,4 C 92 % 1006,2 hPa 0,0 l/m 2 min 0 min 217 W/m 6,4 km/h (2 Bft) 95,74 %
27.10.2020 09:04 9,3 C 13,9 C 8,4 C 91 % 1006,2 hPa 0,0 l/m 2 min 0 min 210 W/m 12,9 km/h (3 Bft) 97,87 %
27.10.2020 09:06 9,4 C 13,9 C 8,4 C 91 % 1006,1 hPa 0,0 l/m 2 min 0 min 207 W/m 12,9 km/h (3 Bft) 97,87 %
27.10.2020 09:08 9,4 C 13,3 C 8,4 C 91 % 1006,1 hPa 0,0 l/m 2 min 0 min 208 W/m 16,1 km/h (3 Bft) 97,87 %
27.10.2020 09:10 9,5 C 13,9 C 8,4 C 91 % 1006,1 hPa 0,0 l/m 2 min 0 min 211 W/m 19,3 km/h (3 Bft) 95,74 %
27.10.2020 09:12 9,5 C 13,9 C 8,4 C 91 % 1006,2 hPa 0,0 l/m 2 min 0 min 212 W/m 6,4 km/h (2 Bft) 97,83 %
27.10.2020 09:14 9,6 C 12,8 C 8,4 C 91 % 1006,2 hPa 0,0 l/m 2 min 0 min 215 W/m 12,9 km/h (3 Bft) 97,87 %
27.10.2020 09:16 9,7 C 12,8 C 8,9 C 91 % 1006,1 hPa 0,0 l/m 2 min 0 min 222 W/m 16,1 km/h (3 Bft) 100,00 %
27.10.2020 09:18 9,8 C 12,2 C 8,9 C 91 % 1006,1 hPa 0,0 l/m 2 min 0 min 239 W/m 25,7 km/h (4 Bft) 97,87 %
27.10.2020 09:20 9,9 C 11,7 C 8,9 C 91 % 1006,2 hPa 0,0 l/m 2 min 0 min 254 W/m 22,5 km/h (4 Bft) 100,00 %
27.10.2020 09:22 10,0 C 12,2 C 8,9 C 90 % 1006,1 hPa 0,0 l/m 2 min 0 min 272 W/m 16,1 km/h (3 Bft) 97,87 %
27.10.2020 09:24 10,0 C 12,2 C 9,5 C 90 % 1006,2 hPa 0,0 l/m 2 min 0 min 306 W/m 19,3 km/h (3 Bft) 97,83 %
27.10.2020 09:26 10,2 C 12,2 C 9,5 C 90 % 1006,1 hPa 0,0 l/m 2 min 0 min 324 W/m 22,5 km/h (4 Bft) 95,74 %
27.10.2020 09:28 10,3 C 12,2 C 9,5 C 89 % 1006,2 hPa 0,0 l/m 2 min 0 min 298 W/m 22,5 km/h (4 Bft) 97,87 %
27.10.2020 09:30 10,4 C 12,8 C 9,5 C 89 % 1006,1 hPa 0,0 l/m 2 min 0 min 187 W/m 22,5 km/h (4 Bft) 97,87 %
27.10.2020 09:32 10,5 C 12,8 C 10,0 C 88 % 1006,1 hPa 0,0 l/m 2 min 0 min 257 W/m 9,7 km/h (2 Bft) 95,83 %
27.10.2020 09:34 10,5 C 12,2 C 10,0 C 88 % 1006,2 hPa 0,0 l/m 2 min 0 min 198 W/m 25,7 km/h (4 Bft) 97,83 %
27.10.2020 09:36 10,6 C 11,7 C 10,0 C 88 % 1006,1 hPa 0,0 l/m 0 min 0 min 132 W/m 19,3 km/h (3 Bft) 95,74 %
27.10.2020 09:38 10,7 C 11,1 C 9,5 C 87 % 1006,2 hPa 0,0 l/m 0 min 0 min 114 W/m 22,5 km/h (4 Bft) 95,74 %
27.10.2020 09:40 10,7 C 11,1 C 9,5 C 87 % 1006,1 hPa 0,0 l/m 0 min 0 min 107 W/m 22,5 km/h (4 Bft) 97,87 %
27.10.2020 09:42 10,8 C 11,1 C 9,5 C 86 % 1006,2 hPa 0,0 l/m 0 min 0 min 119 W/m 22,5 km/h (4 Bft) 97,87 %
27.10.2020 09:44 10,8 C 11,1 C 9,5 C 86 % 1006,2 hPa 0,0 l/m 0 min 0 min 132 W/m 25,7 km/h (4 Bft) 97,87 %
27.10.2020 09:46 10,8 C 11,1 C 9,5 C 86 % 1006,1 hPa 0,0 l/m 0 min 0 min 133 W/m 22,5 km/h (4 Bft) 97,83 %
27.10.2020 09:48 10,8 C 11,1 C 9,5 C 86 % 1006,2 hPa 0,0 l/m 0 min 0 min 136 W/m 19,3 km/h (3 Bft) 97,87 %
27.10.2020 09:50 10,9 C 11,1 C 9,5 C 85 % 1006,2 hPa 0,0 l/m 0 min 0 min 137 W/m 6,4 km/h (2 Bft) 93,62 %
27.10.2020 09:52 10,9 C 11,1 C 9,5 C 85 % 1006,2 hPa 0,0 l/m 0 min 0 min 128 W/m 19,3 km/h (3 Bft) 97,87 %
27.10.2020 09:54 10,9 C 11,1 C 9,5 C 85 % 1006,3 hPa 0,0 l/m 0 min 0 min 126 W/m 22,5 km/h (4 Bft) 100,00 %
27.10.2020 09:56 10,9 C 11,1 C 9,5 C 85 % 1006,4 hPa 0,0 l/m 0 min 0 min 136 W/m 12,9 km/h (3 Bft) 95,74 %
27.10.2020 09:58 10,9 C 11,1 C 9,5 C 85 % 1006,3 hPa 0,0 l/m 0 min 0 min 140 W/m 22,5 km/h (4 Bft) 100,00 %
27.10.2020 10:00 10,9 C 11,1 C 9,5 C 85 % 1006,4 hPa 0,0 l/m 0 min 0 min 132 W/m 22,5 km/h (4 Bft) 100,00 %
27.10.2020 10:02 10,9 C 11,1 C 9,5 C 85 % 1006,3 hPa 0,0 l/m 0 min 0 min 124 W/m 22,5 km/h (4 Bft) 97,96 %
27.10.2020 10:04 10,9 C 11,1 C 9,5 C 85 % 1006,2 hPa 0,0 l/m 0 min 0 min 126 W/m 12,9 km/h (3 Bft) 100,00 %
27.10.2020 10:06 10,9 C 11,1 C 9,5 C 85 % 1006,3 hPa 0,0 l/m 0 min 0 min 138 W/m 25,7 km/h (4 Bft) 97,87 %
27.10.2020 10:08 10,9 C 11,1 C 9,5 C 85 % 1006,3 hPa 0,0 l/m 0 min 0 min 145 W/m 25,7 km/h (4 Bft) 100,00 %
27.10.2020 10:10 10,9 C 11,7 C 9,5 C 85 % 1006,3 hPa 0,0 l/m 2 min 0 min 203 W/m 19,3 km/h (3 Bft) 100,00 %
27.10.2020 10:12 11,0 C 12,2 C 9,5 C 85 % 1006,3 hPa 0,0 l/m 2 min 0 min 373 W/m 22,5 km/h (4 Bft) 100,00 %
27.10.2020 10:14 11,0 C 13,3 C 9,5 C 85 % 1006,2 hPa 0,0 l/m 2 min 0 min 406 W/m 16,1 km/h (3 Bft) 100,00 %
27.10.2020 10:16 11,0 C 13,9 C 9,5 C 85 % 1006,2 hPa 0,0 l/m 2 min 0 min 373 W/m 22,5 km/h (4 Bft) 100,00 %
27.10.2020 10:18 11,0 C 13,3 C 9,5 C 85 % 1006,3 hPa 0,0 l/m 2 min 0 min 310 W/m 19,3 km/h (3 Bft) 97,87 %
27.10.2020 10:20 11,0 C 12,8 C 9,5 C 84 % 1006,3 hPa 0,0 l/m 2 min 0 min 265 W/m 38,6 km/h (5 Bft) 100,00 %
27.10.2020 10:22 11,1 C 12,2 C 9,5 C 84 % 1006,3 hPa 0,0 l/m 2 min 0 min 220 W/m 25,7 km/h (4 Bft) 100,00 %
27.10.2020 10:24 11,1 C 11,7 C 9,5 C 84 % 1006,4 hPa 0,0 l/m 0 min 0 min 162 W/m 35,4 km/h (5 Bft) 97,87 %
27.10.2020 10:26 11,1 C 11,7 C 9,5 C 84 % 1006,4 hPa 0,0 l/m 0 min 0 min 163 W/m 35,4 km/h (5 Bft) 100,00 %
27.10.2020 10:28 11,1 C 11,7 C 10,0 C 84 % 1006,3 hPa 0,0 l/m 2 min 0 min 208 W/m 25,7 km/h (4 Bft) 97,87 %
27.10.2020 10:30 11,1 C 12,2 C 10,0 C 84 % 1006,3 hPa 0,0 l/m 2 min 0 min 227 W/m 25,7 km/h (4 Bft) 97,87 %
27.10.2020 10:32 11,2 C 12,2 C 10,0 C 84 % 1006,3 hPa 0,0 l/m 2 min 0 min 306 W/m 16,1 km/h (3 Bft) 97,87 %
27.10.2020 10:34 11,3 C 12,2 C 10,0 C 84 % 1006,3 hPa 0,0 l/m 2 min 0 min 302 W/m 29,0 km/h (5 Bft) 100,00 %
27.10.2020 10:36 11,3 C 12,2 C 10,0 C 84 % 1006,4 hPa 0,0 l/m 0 min 0 min 168 W/m 29,0 km/h (5 Bft) 100,00 %
27.10.2020 10:38 11,3 C 12,2 C 10,0 C 83 % 1006,3 hPa 0,0 l/m 0 min 0 min 167 W/m 38,6 km/h (5 Bft) 100,00 %
27.10.2020 10:40 11,4 C 12,8 C 10,0 C 83 % 1006,4 hPa 0,0 l/m 2 min 0 min 258 W/m 32,2 km/h (5 Bft) 100,00 %
27.10.2020 10:42 11,4 C 12,2 C 10,0 C 83 % 1006,4 hPa 0,0 l/m 2 min 0 min 392 W/m 38,6 km/h (5 Bft) 97,87 %
27.10.2020 10:44 11,5 C 12,2 C 10,0 C 83 % 1006,4 hPa 0,0 l/m 2 min 0 min 260 W/m 41,8 km/h (6 Bft) 100,00 %
27.10.2020 10:46 11,5 C 12,2 C 10,0 C 82 % 1006,3 hPa 0,0 l/m 2 min 0 min 234 W/m 22,5 km/h (4 Bft) 97,87 %
27.10.2020 10:48 11,5 C 12,2 C 10,0 C 82 % 1006,4 hPa 0,0 l/m 0 min 0 min 189 W/m 29,0 km/h (5 Bft) 97,87 %
27.10.2020 10:50 11,5 C 11,7 C 10,0 C 82 % 1006,5 hPa 0,0 l/m 0 min 0 min 126 W/m 35,4 km/h (5 Bft) 100,00 %
27.10.2020 10:52 11,5 C 11,7 C 10,0 C 82 % 1006,7 hPa 0,0 l/m 0 min 0 min 106 W/m 22,5 km/h (4 Bft) 97,87 %
27.10.2020 10:54 11,5 C 11,7 C 10,0 C 82 % 1006,5 hPa 0,0 l/m 0 min 0 min 98 W/m 25,7 km/h (4 Bft) 100,00 %
27.10.2020 10:56 11,6 C 11,1 C 10,0 C 82 % 1006,6 hPa 0,0 l/m 0 min 0 min 87 W/m 25,7 km/h (4 Bft) 100,00 %
27.10.2020 10:58 11,6 C 11,1 C 10,0 C 82 % 1006,7 hPa 0,0 l/m 0 min 0 min 84 W/m 32,2 km/h (5 Bft) 100,00 %
27.10.2020 11:00 11,6 C 11,1 C 10,0 C 82 % 1006,6 hPa 0,0 l/m 0 min 0 min 89 W/m 25,7 km/h (4 Bft) 100,00 %
27.10.2020 11:02 11,5 C 11,1 C 10,0 C 82 % 1006,6 hPa 0,0 l/m 0 min 0 min 85 W/m 32,2 km/h (5 Bft) 97,92 %
27.10.2020 11:04 11,5 C 11,1 C 10,0 C 81 % 1006,7 hPa 0,0 l/m 0 min 0 min 96 W/m 35,4 km/h (5 Bft) 95,74 %
27.10.2020 11:06 11,5 C 11,1 C 10,0 C 81 % 1006,7 hPa 0,0 l/m 0 min 0 min 92 W/m 38,6 km/h (5 Bft) 97,87 %
27.10.2020 11:08 11,5 C 11,1 C 9,5 C 81 % 1006,7 hPa 0,0 l/m 0 min 0 min 72 W/m 35,4 km/h (5 Bft) 97,83 %
27.10.2020 11:10 11,4 C 11,1 C 9,5 C 81 % 1007,0 hPa 0,0 l/m 0 min 0 min 85 W/m 35,4 km/h (5 Bft) 95,74 %
27.10.2020 11:12 11,4 C 11,1 C 9,5 C 81 % 1006,7 hPa 0,0 l/m 0 min 0 min 133 W/m 38,6 km/h (5 Bft) 97,87 %
27.10.2020 11:14 11,4 C 11,1 C 10,0 C 81 % 1006,6 hPa 0,0 l/m 0 min 0 min 184 W/m 29,0 km/h (5 Bft) 97,87 %
27.10.2020 11:16 11,4 C 11,1 C 10,0 C 81 % 1006,7 hPa 0,0 l/m 0 min 0 min 167 W/m 25,7 km/h (4 Bft) 95,74 %
27.10.2020 11:18 11,4 C 11,1 C 10,0 C 82 % 1006,6 hPa 0,0 l/m 0 min 0 min 156 W/m 25,7 km/h (4 Bft) 95,74 %
27.10.2020 11:20 11,4 C 11,7 C 10,0 C 82 % 1006,6 hPa 0,0 l/m 0 min 0 min 147 W/m 32,2 km/h (5 Bft) 95,65 %
27.10.2020 11:22 11,4 C 11,7 C 10,0 C 82 % 1006,6 hPa 0,0 l/m 0 min 0 min 150 W/m 19,3 km/h (3 Bft) 97,87 %
27.10.2020 11:24 11,4 C 11,7 C 10,0 C 82 % 1006,6 hPa 0,0 l/m 0 min 0 min 162 W/m 35,4 km/h (5 Bft) 97,87 %
27.10.2020 11:26 11,4 C 11,7 C 10,0 C 82 % 1006,6 hPa 0,0 l/m 0 min 0 min 169 W/m 32,2 km/h (5 Bft) 95,74 %
27.10.2020 11:28 11,4 C 11,7 C 10,0 C 82 % 1006,5 hPa 0,0 l/m 0 min 0 min 183 W/m 35,4 km/h (5 Bft) 95,74 %
27.10.2020 11:30 11,4 C 11,7 C 10,0 C 81 % 1006,5 hPa 0,0 l/m 0 min 0 min 189 W/m 29,0 km/h (5 Bft) 97,87 %
27.10.2020 11:32 11,4 C 11,7 C 10,0 C 81 % 1006,5 hPa 0,0 l/m 0 min 0 min 206 W/m 25,7 km/h (4 Bft) 93,62 %
27.10.2020 11:34 11,4 C 12,2 C 10,0 C 81 % 1006,5 hPa 0,0 l/m 2 min 0 min 255 W/m 32,2 km/h (5 Bft) 91,49 %
27.10.2020 11:36 11,5 C 12,8 C 10,0 C 81 % 1006,5 hPa 0,0 l/m 2 min 0 min 280 W/m 32,2 km/h (5 Bft) 93,62 %
27.10.2020 11:38 11,5 C 12,2 C 10,0 C 81 % 1006,5 hPa 0,0 l/m 0 min 0 min 208 W/m 32,2 km/h (5 Bft) 93,62 %
27.10.2020 11:40 11,5 C 12,2 C 10,0 C 81 % 1006,4 hPa 0,0 l/m 0 min 0 min 202 W/m 29,0 km/h (5 Bft) 95,74 %
27.10.2020 11:42 11,6 C 13,3 C 10,0 C 81 % 1006,5 hPa 0,0 l/m 2 min 0 min 213 W/m 25,7 km/h (4 Bft) 93,48 %
27.10.2020 11:44 11,6 C 13,3 C 10,0 C 81 % 1006,4 hPa 0,0 l/m 2 min 0 min 342 W/m 22,5 km/h (4 Bft) 93,62 %
27.10.2020 11:46 11,6 C 12,8 C 10,6 C 81 % 1006,4 hPa 0,0 l/m 0 min 0 min 205 W/m 25,7 km/h (4 Bft) 93,62 %
27.10.2020 11:48 11,7 C 12,2 C 10,0 C 81 % 1006,4 hPa 0,0 l/m 0 min 0 min 162 W/m 22,5 km/h (4 Bft) 93,62 %
27.10.2020 11:50 11,7 C 12,2 C 10,0 C 80 % 1006,4 hPa 0,0 l/m 0 min 0 min 184 W/m 29,0 km/h (5 Bft) 93,62 %
27.10.2020 11:52 11,8 C 12,8 C 10,6 C 80 % 1006,4 hPa 0,0 l/m 2 min 0 min 249 W/m 25,7 km/h (4 Bft) 95,74 %
27.10.2020 11:54 11,8 C 12,8 C 10,6 C 81 % 1006,3 hPa 0,0 l/m 2 min 0 min 281 W/m 29,0 km/h (5 Bft) 93,48 %
27.10.2020 11:56 11,8 C 13,3 C 10,6 C 80 % 1006,3 hPa 0,0 l/m 2 min 0 min 276 W/m 29,0 km/h (5 Bft) 95,74 %
27.10.2020 11:58 11,9 C 13,3 C 10,6 C 80 % 1006,4 hPa 0,0 l/m 2 min 0 min 323 W/m 19,3 km/h (3 Bft) 93,62 %
27.10.2020 12:00 11,9 C 12,8 C 10,6 C 80 % 1006,5 hPa 0,0 l/m 0 min 0 min 185 W/m 29,0 km/h (5 Bft) 95,74 %
27.10.2020 12:02 12,0 C 12,8 C 10,6 C 79 % 1006,4 hPa 0,0 l/m 0 min 0 min 171 W/m 35,4 km/h (5 Bft) 97,22 %
27.10.2020 12:04 12,0 C 12,2 C 10,6 C 79 % 1006,4 hPa 0,0 l/m 0 min 0 min 116 W/m 25,7 km/h (4 Bft) 93,62 %
27.10.2020 12:08 12,0 C 11,7 C 10,6 C 79 % 1006,5 hPa 0,0 l/m 0 min 0 min 106 W/m 29,0 km/h (5 Bft) 95,00 %
27.10.2020 12:10 12,0 C 11,7 C 10,0 C 78 % 1006,6 hPa 0,0 l/m 0 min 0 min 95 W/m 25,7 km/h (4 Bft) 93,62 %
27.10.2020 12:12 12,0 C 11,7 C 10,0 C 78 % 1006,5 hPa 0,0 l/m 0 min 0 min 167 W/m 32,2 km/h (5 Bft) 97,87 %
27.10.2020 12:14 12,0 C 12,2 C 10,6 C 79 % 1006,4 hPa 0,0 l/m 2 min 0 min 231 W/m 16,1 km/h (3 Bft) 97,87 %
27.10.2020 12:16 12,0 C 12,8 C 10,6 C 79 % 1006,4 hPa 0,0 l/m 2 min 0 min 242 W/m 22,5 km/h (4 Bft) 97,87 %
27.10.2020 12:18 12,0 C 12,2 C 10,6 C 78 % 1006,4 hPa 0,0 l/m 0 min 0 min 215 W/m 32,2 km/h (5 Bft) 95,65 %
27.10.2020 12:20 12,0 C 12,2 C 10,6 C 78 % 1006,4 hPa 0,0 l/m 0 min 0 min 209 W/m 25,7 km/h (4 Bft) 97,87 %
27.10.2020 12:22 12,1 C 12,2 C 10,6 C 78 % 1006,4 hPa 0,0 l/m 0 min 0 min 191 W/m 32,2 km/h (5 Bft) 97,87 %
27.10.2020 12:24 12,0 C 12,2 C 10,6 C 78 % 1006,3 hPa 0,0 l/m 0 min 0 min 170 W/m 25,7 km/h (4 Bft) 97,87 %
27.10.2020 12:26 12,0 C 12,2 C 10,6 C 78 % 1006,3 hPa 0,0 l/m 0 min 0 min 193 W/m 29,0 km/h (5 Bft) 97,87 %
27.10.2020 12:28 12,1 C 12,2 C 10,6 C 79 % 1006,4 hPa 0,0 l/m 0 min 0 min 202 W/m 22,5 km/h (4 Bft) 95,74 %
27.10.2020 12:30 12,1 C 12,2 C 10,6 C 79 % 1006,4 hPa 0,0 l/m 0 min 0 min 180 W/m 35,4 km/h (5 Bft) 97,83 %
27.10.2020 12:32 12,1 C 12,2 C 10,6 C 78 % 1006,3 hPa 0,0 l/m 0 min 0 min 148 W/m 29,0 km/h (5 Bft) 95,83 %
27.10.2020 12:34 12,1 C 12,2 C 10,6 C 78 % 1006,4 hPa 0,0 l/m 0 min 0 min 181 W/m 35,4 km/h (5 Bft) 97,87 %
27.10.2020 12:36 12,1 C 12,2 C 10,6 C 79 % 1006,4 hPa 0,0 l/m 2 min 0 min 234 W/m 35,4 km/h (5 Bft) 95,74 %
27.10.2020 12:38 12,1 C 12,8 C 10,6 C 79 % 1006,3 hPa 0,0 l/m 2 min 0 min 254 W/m 48,3 km/h (6 Bft) 97,87 %
27.10.2020 12:40 12,1 C 12,2 C 10,6 C 78 % 1006,3 hPa 0,0 l/m 0 min 0 min 202 W/m 41,8 km/h (6 Bft) 100,00 %
27.10.2020 12:42 12,1 C 12,2 C 10,6 C 78 % 1006,3 hPa 0,0 l/m 0 min 0 min 192 W/m 38,6 km/h (5 Bft) 100,00 %
27.10.2020 12:44 12,1 C 12,2 C 10,6 C 78 % 1006,3 hPa 0,0 l/m 0 min 0 min 175 W/m 25,7 km/h (4 Bft) 100,00 %
27.10.2020 12:46 12,1 C 12,8 C 10,6 C 78 % 1006,3 hPa 0,0 l/m 0 min 0 min 162 W/m 25,7 km/h (4 Bft) 93,62 %
27.10.2020 12:48 12,2 C 12,2 C 10,6 C 78 % 1006,2 hPa 0,0 l/m 0 min 0 min 152 W/m 29,0 km/h (5 Bft) 100,00 %
27.10.2020 12:50 12,2 C 12,2 C 10,6 C 78 % 1006,2 hPa 0,0 l/m 0 min 0 min 152 W/m 48,3 km/h (6 Bft) 100,00 %
27.10.2020 12:52 12,2 C 11,7 C 10,6 C 78 % 1006,1 hPa 0,0 l/m 0 min 0 min 99 W/m 29,0 km/h (5 Bft) 100,00 %
27.10.2020 12:54 12,2 C 11,7 C 10,6 C 78 % 1006,2 hPa 0,0 l/m 0 min 0 min 84 W/m 22,5 km/h (4 Bft) 100,00 %
27.10.2020 12:56 12,2 C 11,7 C 10,6 C 78 % 1006,1 hPa 0,0 l/m 0 min 0 min 94 W/m 19,3 km/h (3 Bft) 93,62 %
27.10.2020 12:58 12,2 C 12,2 C 10,6 C 78 % 1006,2 hPa 0,0 l/m 0 min 0 min 137 W/m 29,0 km/h (5 Bft) 100,00 %
27.10.2020 13:00 12,1 C 12,2 C 10,6 C 78 % 1006,3 hPa 0,0 l/m 0 min 0 min 175 W/m 29,0 km/h (5 Bft) 100,00 %
27.10.2020 13:02 12,1 C 12,2 C 10,6 C 78 % 1006,2 hPa 0,0 l/m 0 min 0 min 164 W/m 19,3 km/h (3 Bft) 100,00 %
27.10.2020 13:04 12,1 C 12,2 C 10,6 C 78 % 1006,2 hPa 0,0 l/m 0 min 0 min 171 W/m 32,2 km/h (5 Bft) 100,00 %
27.10.2020 13:06 12,2 C 12,2 C 10,6 C 78 % 1006,2 hPa 0,0 l/m 0 min 0 min 168 W/m 29,0 km/h (5 Bft) 100,00 %
27.10.2020 13:08 12,2 C 12,8 C 10,6 C 78 % 1006,1 hPa 0,0 l/m 0 min 0 min 161 W/m 22,5 km/h (4 Bft) 100,00 %
27.10.2020 13:10 12,2 C 12,8 C 10,6 C 79 % 1006,0 hPa 0,0 l/m 0 min 0 min 139 W/m 16,1 km/h (3 Bft) 100,00 %
27.10.2020 13:12 12,3 C 12,2 C 10,6 C 78 % 1006,1 hPa 0,0 l/m 0 min 0 min 164 W/m 22,5 km/h (4 Bft) 97,87 %
27.10.2020 13:14 12,3 C 12,2 C 10,6 C 78 % 1006,2 hPa 0,0 l/m 0 min 0 min 175 W/m 51,5 km/h (7 Bft) 100,00 %
27.10.2020 13:16 12,3 C 12,2 C 10,6 C 77 % 1006,2 hPa 0,0 l/m 0 min 0 min 140 W/m 35,4 km/h (5 Bft) 100,00 %
27.10.2020 13:18 12,3 C 12,8 C 10,6 C 78 % 1006,1 hPa 0,0 l/m 0 min 0 min 182 W/m 19,3 km/h (3 Bft) 100,00 %
27.10.2020 13:20 12,3 C 12,8 C 11,1 C 78 % 1006,1 hPa 0,0 l/m 2 min 0 min 231 W/m 25,7 km/h (4 Bft) 100,00 %
27.10.2020 13:22 12,4 C 12,8 C 11,1 C 77 % 1006,2 hPa 0,0 l/m 0 min 0 min 175 W/m 41,8 km/h (6 Bft) 100,00 %
27.10.2020 13:24 12,4 C 12,8 C 11,1 C 77 % 1006,0 hPa 0,0 l/m 0 min 0 min 140 W/m 25,7 km/h (4 Bft) 100,00 %
27.10.2020 13:26 12,4 C 12,2 C 11,1 C 77 % 1006,0 hPa 0,0 l/m 0 min 0 min 104 W/m 32,2 km/h (5 Bft) 100,00 %
27.10.2020 13:28 12,5 C 12,2 C 10,6 C 77 % 1006,0 hPa 0,0 l/m 0 min 0 min 76 W/m 38,6 km/h (5 Bft) 97,83 %
27.10.2020 13:30 12,5 C 12,2 C 10,6 C 77 % 1006,0 hPa 0,0 l/m 0 min 0 min 83 W/m 35,4 km/h (5 Bft) 100,00 %
27.10.2020 13:32 12,5 C 12,2 C 10,6 C 76 % 1006,2 hPa 0,0 l/m 0 min 0 min 127 W/m 35,4 km/h (5 Bft) 100,00 %
27.10.2020 13:34 12,5 C 12,2 C 10,6 C 76 % 1006,0 hPa 0,0 l/m 0 min 0 min 121 W/m 25,7 km/h (4 Bft) 100,00 %
27.10.2020 13:36 12,5 C 12,2 C 10,6 C 76 % 1006,1 hPa 0,0 l/m 0 min 0 min 113 W/m 38,6 km/h (5 Bft) 100,00 %
27.10.2020 13:38 12,5 C 12,2 C 10,6 C 76 % 1006,0 hPa 0,0 l/m 0 min 0 min 171 W/m 45,1 km/h (6 Bft) 100,00 %
27.10.2020 13:40 12,5 C 12,8 C 10,6 C 76 % 1006,0 hPa 0,0 l/m 2 min 0 min 206 W/m 25,7 km/h (4 Bft) 100,00 %
27.10.2020 13:42 12,5 C 12,8 C 10,6 C 76 % 1005,9 hPa 0,0 l/m 0 min 0 min 146 W/m 25,7 km/h (4 Bft) 100,00 %
27.10.2020 13:44 12,5 C 12,2 C 10,6 C 76 % 1006,0 hPa 0,0 l/m 0 min 0 min 102 W/m 35,4 km/h (5 Bft) 97,87 %
27.10.2020 13:46 12,5 C 12,2 C 10,6 C 76 % 1006,0 hPa 0,0 l/m 0 min 0 min 87 W/m 29,0 km/h (5 Bft) 100,00 %
27.10.2020 13:48 12,5 C 12,2 C 10,6 C 75 % 1005,9 hPa 0,0 l/m 0 min 0 min 92 W/m 41,8 km/h (6 Bft) 97,87 %
27.10.2020 13:50 12,5 C 12,2 C 10,6 C 75 % 1006,1 hPa 0,0 l/m 0 min 0 min 91 W/m 45,1 km/h (6 Bft) 100,00 %
27.10.2020 13:52 12,5 C 12,2 C 10,6 C 75 % 1005,8 hPa 0,0 l/m 0 min 0 min 101 W/m 29,0 km/h (5 Bft) 100,00 %
27.10.2020 13:54 12,4 C 11,7 C 10,6 C 75 % 1005,9 hPa 0,0 l/m 0 min 0 min 72 W/m 41,8 km/h (6 Bft) 100,00 %
27.10.2020 13:56 12,4 C 11,7 C 10,6 C 75 % 1005,9 hPa 0,0 l/m 0 min 0 min 51 W/m 32,2 km/h (5 Bft) 100,00 %
27.10.2020 13:58 12,4 C 11,7 C 10,0 C 75 % 1005,9 hPa 0,0 l/m 0 min 0 min 44 W/m 45,1 km/h (6 Bft) 100,00 %
27.10.2020 14:00 12,4 C 11,7 C 10,0 C 75 % 1006,0 hPa 0,0 l/m 0 min 0 min 50 W/m 32,2 km/h (5 Bft) 95,74 %
27.10.2020 14:02 12,4 C 11,7 C 10,0 C 76 % 1005,9 hPa 0,0 l/m 0 min 0 min 73 W/m 25,7 km/h (4 Bft) 95,74 %
27.10.2020 14:04 12,3 C 11,7 C 10,6 C 76 % 1006,0 hPa 0,0 l/m 0 min 0 min 96 W/m 38,6 km/h (5 Bft) 95,74 %
27.10.2020 14:06 12,3 C 12,2 C 10,6 C 76 % 1006,0 hPa 0,0 l/m 0 min 0 min 125 W/m 25,7 km/h (4 Bft) 95,92 %
27.10.2020 14:08 12,3 C 12,2 C 10,6 C 76 % 1005,9 hPa 0,0 l/m 0 min 0 min 126 W/m 35,4 km/h (5 Bft) 91,49 %
27.10.2020 14:10 12,3 C 12,2 C 10,6 C 76 % 1005,9 hPa 0,0 l/m 0 min 0 min 128 W/m 19,3 km/h (3 Bft) 95,74 %
27.10.2020 14:12 12,3 C 12,2 C 10,6 C 76 % 1005,9 hPa 0,0 l/m 0 min 0 min 124 W/m 29,0 km/h (5 Bft) 95,74 %
27.10.2020 14:14 12,3 C 12,2 C 10,6 C 76 % 1005,8 hPa 0,0 l/m 0 min 0 min 106 W/m 29,0 km/h (5 Bft) 95,74 %
27.10.2020 14:16 12,3 C 12,2 C 10,6 C 76 % 1005,8 hPa 0,0 l/m 0 min 0 min 85 W/m 25,7 km/h (4 Bft) 95,65 %
27.10.2020 14:18 12,3 C 11,7 C 10,6 C 76 % 1005,8 hPa 0,0 l/m 0 min 0 min 74 W/m 25,7 km/h (4 Bft) 95,74 %
27.10.2020 14:20 12,3 C 11,7 C 10,0 C 76 % 1005,9 hPa 0,0 l/m 0 min 0 min 67 W/m 22,5 km/h (4 Bft) 95,74 %
27.10.2020 14:22 12,3 C 11,7 C 10,0 C 76 % 1005,8 hPa 0,0 l/m 0 min 0 min 63 W/m 38,6 km/h (5 Bft) 95,74 %
27.10.2020 14:24 12,2 C 11,7 C 10,0 C 76 % 1005,9 hPa 0,0 l/m 0 min 0 min 57 W/m 35,4 km/h (5 Bft) 95,74 %
27.10.2020 14:26 12,2 C 11,7 C 10,0 C 76 % 1005,8 hPa 0,0 l/m 0 min 0 min 62 W/m 19,3 km/h (3 Bft) 91,49 %
27.10.2020 14:28 12,2 C 11,7 C 10,0 C 76 % 1005,7 hPa 0,0 l/m 0 min 0 min 69 W/m 38,6 km/h (5 Bft) 95,65 %
27.10.2020 14:30 12,2 C 11,7 C 10,0 C 76 % 1005,7 hPa 0,0 l/m 0 min 0 min 70 W/m 22,5 km/h (4 Bft) 95,74 %
27.10.2020 14:32 12,2 C 11,7 C 10,0 C 76 % 1005,7 hPa 0,0 l/m 0 min 0 min 74 W/m 19,3 km/h (3 Bft) 91,43 %
27.10.2020 14:34 12,1 C 11,7 C 10,0 C 77 % 1005,7 hPa 0,0 l/m 0 min 0 min 76 W/m 35,4 km/h (5 Bft) 95,74 %
27.10.2020 14:36 12,2 C 11,7 C 10,0 C 77 % 1005,7 hPa 0,0 l/m 0 min 0 min 84 W/m 38,6 km/h (5 Bft) 97,87 %
27.10.2020 14:38 12,1 C 11,7 C 10,0 C 76 % 1005,8 hPa 0,0 l/m 0 min 0 min 86 W/m 35,4 km/h (5 Bft) 94,92 %
27.10.2020 14:40 12,1 C 11,7 C 10,0 C 77 % 1005,8 hPa 0,0 l/m 0 min 0 min 83 W/m 32,2 km/h (5 Bft) 88,57 %
27.10.2020 14:42 12,1 C 11,7 C 10,0 C 77 % 1005,7 hPa 0,0 l/m 0 min 0 min 80 W/m 22,5 km/h (4 Bft) 93,62 %
27.10.2020 14:44 12,1 C 11,7 C 10,0 C 77 % 1005,8 hPa 0,0 l/m 0 min 0 min 70 W/m 6,4 km/h (2 Bft) 95,65 %
27.10.2020 14:46 12,2 C 11,7 C 10,0 C 77 % 1005,7 hPa 0,0 l/m 0 min 0 min 53 W/m 19,3 km/h (3 Bft) 95,74 %
27.10.2020 14:48 12,1 C 11,7 C 10,0 C 77 % 1005,7 hPa 0,0 l/m 0 min 0 min 39 W/m 22,5 km/h (4 Bft) 97,87 %
27.10.2020 14:50 12,1 C 11,7 C 10,0 C 77 % 1005,7 hPa 0,0 l/m 0 min 0 min 40 W/m 16,1 km/h (3 Bft) 95,74 %
27.10.2020 14:52 12,1 C 11,7 C 10,0 C 77 % 1005,7 hPa 0,0 l/m 0 min 0 min 42 W/m 25,7 km/h (4 Bft) 93,62 %
27.10.2020 14:54 12,1 C 11,7 C 10,0 C 77 % 1005,7 hPa 0,0 l/m 0 min 0 min 33 W/m 22,5 km/h (4 Bft) 97,83 %
27.10.2020 14:56 12,1 C 11,7 C 10,0 C 77 % 1005,6 hPa 0,0 l/m 0 min 0 min 30 W/m 22,5 km/h (4 Bft) 95,74 %
27.10.2020 14:58 12,1 C 11,7 C 10,0 C 78 % 1005,6 hPa 0,0 l/m 0 min 0 min 25 W/m 12,9 km/h (3 Bft) 95,74 %
27.10.2020 15:00 12,1 C 11,7 C 10,0 C 78 % 1005,6 hPa 0,0 l/m 0 min 0 min 26 W/m 6,4 km/h (2 Bft) 97,87 %
27.10.2020 15:02 12,1 C 11,7 C 10,0 C 78 % 1005,6 hPa 0,0 l/m 0 min 0 min 38 W/m 25,7 km/h (4 Bft) 95,74 %
27.10.2020 15:04 12,1 C 11,7 C 10,0 C 78 % 1005,6 hPa 0,0 l/m 0 min 0 min 59 W/m 25,7 km/h (4 Bft) 97,87 %
27.10.2020 15:06 12,1 C 11,7 C 10,0 C 78 % 1005,6 hPa 0,0 l/m 0 min 0 min 80 W/m 19,3 km/h (3 Bft) 97,83 %
27.10.2020 15:08 12,1 C 12,2 C 10,0 C 78 % 1005,6 hPa 0,0 l/m 0 min 0 min 117 W/m 25,7 km/h (4 Bft) 96,61 %
27.10.2020 15:10 12,1 C 12,2 C 10,0 C 78 % 1005,7 hPa 0,0 l/m 0 min 0 min 122 W/m 29,0 km/h (5 Bft) 93,62 %
27.10.2020 15:12 12,1 C 12,2 C 10,0 C 78 % 1005,6 hPa 0,0 l/m 0 min 0 min 115 W/m 25,7 km/h (4 Bft) 93,48 %
27.10.2020 15:14 12,1 C 12,2 C 10,6 C 78 % 1005,6 hPa 0,0 l/m 0 min 0 min 105 W/m 16,1 km/h (3 Bft) 97,87 %
27.10.2020 15:16 12,1 C 12,2 C 10,0 C 78 % 1005,6 hPa 0,0 l/m 0 min 0 min 100 W/m 19,3 km/h (3 Bft) 91,49 %
27.10.2020 15:18 12,1 C 11,7 C 10,0 C 78 % 1005,6 hPa 0,0 l/m 0 min 0 min 93 W/m 25,7 km/h (4 Bft) 95,74 %
27.10.2020 15:20 12,1 C 11,7 C 10,0 C 78 % 1005,5 hPa 0,0 l/m 0 min 0 min 87 W/m 16,1 km/h (3 Bft) 97,87 %
27.10.2020 15:22 12,1 C 11,7 C 10,0 C 78 % 1005,5 hPa 0,0 l/m 0 min 0 min 84 W/m 19,3 km/h (3 Bft) 97,87 %
27.10.2020 15:24 12,1 C 11,7 C 10,0 C 77 % 1005,4 hPa 0,0 l/m 0 min 0 min 83 W/m 25,7 km/h (4 Bft) 95,65 %
27.10.2020 15:26 12,1 C 11,7 C 10,0 C 77 % 1005,4 hPa 0,0 l/m 0 min 0 min 80 W/m 25,7 km/h (4 Bft) 95,74 %
27.10.2020 15:28 12,1 C 11,7 C 10,0 C 77 % 1005,4 hPa 0,0 l/m 0 min 0 min 74 W/m 16,1 km/h (3 Bft) 97,87 %
27.10.2020 15:30 12,1 C 11,7 C 10,0 C 77 % 1005,5 hPa 0,0 l/m 0 min 0 min 72 W/m 22,5 km/h (4 Bft) 97,87 %
27.10.2020 15:32 12,1 C 11,7 C 10,0 C 77 % 1005,4 hPa 0,0 l/m 0 min 0 min 72 W/m 19,3 km/h (3 Bft) 97,87 %
27.10.2020 15:34 12,1 C 11,7 C 10,0 C 77 % 1005,4 hPa 0,0 l/m 0 min 0 min 70 W/m 25,7 km/h (4 Bft) 97,87 %
27.10.2020 15:36 12,1 C 11,7 C 10,0 C 77 % 1005,4 hPa 0,0 l/m 0 min 0 min 71 W/m 32,2 km/h (5 Bft) 97,87 %
27.10.2020 15:38 12,1 C 11,7 C 10,0 C 77 % 1005,4 hPa 0,0 l/m 0 min 0 min 70 W/m 25,7 km/h (4 Bft) 97,83 %
27.10.2020 15:40 12,1 C 11,7 C 10,0 C 77 % 1005,4 hPa 0,0 l/m 0 min 0 min 66 W/m 32,2 km/h (5 Bft) 97,87 %
27.10.2020 15:42 12,0 C 11,7 C 10,0 C 77 % 1005,4 hPa 0,0 l/m 0 min 0 min 59 W/m 16,1 km/h (3 Bft) 97,87 %
27.10.2020 15:44 12,0 C 11,7 C 10,0 C 77 % 1005,3 hPa 0,0 l/m 0 min 0 min 52 W/m 19,3 km/h (3 Bft) 97,87 %
27.10.2020 15:46 12,0 C 11,7 C 10,0 C 77 % 1005,3 hPa 0,0 l/m 0 min 0 min 47 W/m 29,0 km/h (5 Bft) 95,74 %
27.10.2020 15:48 12,0 C 11,7 C 10,0 C 77 % 1005,3 hPa 0,0 l/m 0 min 0 min 42 W/m 25,7 km/h (4 Bft) 100,00 %
27.10.2020 15:50 12,0 C 11,1 C 10,0 C 77 % 1005,2 hPa 0,0 l/m 0 min 0 min 38 W/m 22,5 km/h (4 Bft) 100,00 %
27.10.2020 15:52 12,0 C 11,1 C 10,0 C 77 % 1005,4 hPa 0,0 l/m 0 min 0 min 36 W/m 19,3 km/h (3 Bft) 100,00 %
27.10.2020 15:54 12,0 C 11,1 C 10,0 C 77 % 1005,4 hPa 0,0 l/m 0 min 0 min 35 W/m 16,1 km/h (3 Bft) 100,00 %
27.10.2020 15:56 11,9 C 11,1 C 10,0 C 77 % 1005,2 hPa 0,0 l/m 0 min 0 min 35 W/m 6,4 km/h (2 Bft) 97,87 %
27.10.2020 15:58 11,9 C 11,1 C 10,0 C 77 % 1005,2 hPa 0,0 l/m 0 min 0 min 37 W/m 12,9 km/h (3 Bft) 100,00 %
27.10.2020 16:00 11,9 C 11,1 C 9,5 C 77 % 1005,2 hPa 0,0 l/m 0 min 0 min 37 W/m 19,3 km/h (3 Bft) 100,00 %
27.10.2020 16:02 11,9 C 11,1 C 9,5 C 77 % 1005,3 hPa 0,0 l/m 0 min 0 min 36 W/m 22,5 km/h (4 Bft) 100,00 %
27.10.2020 16:04 11,9 C 11,1 C 9,5 C 77 % 1005,2 hPa 0,0 l/m 0 min 0 min 35 W/m 12,9 km/h (3 Bft) 100,00 %
27.10.2020 16:06 11,9 C 11,1 C 9,5 C 77 % 1005,2 hPa 0,0 l/m 0 min 0 min 37 W/m 19,3 km/h (3 Bft) 100,00 %
27.10.2020 16:08 11,9 C 11,1 C 9,5 C 77 % 1005,2 hPa 0,0 l/m 0 min 0 min 37 W/m 32,2 km/h (5 Bft) 100,00 %
27.10.2020 16:10 11,8 C 11,1 C 9,5 C 77 % 1005,2 hPa 0,0 l/m 0 min 0 min 38 W/m 19,3 km/h (3 Bft) 100,00 %
27.10.2020 16:12 11,8 C 11,1 C 9,5 C 77 % 1005,2 hPa 0,0 l/m 0 min 0 min 39 W/m 16,1 km/h (3 Bft) 100,00 %
27.10.2020 16:14 11,8 C 11,1 C 9,5 C 77 % 1005,2 hPa 0,0 l/m 0 min 0 min 40 W/m 22,5 km/h (4 Bft) 100,00 %
27.10.2020 16:16 11,8 C 11,1 C 9,5 C 77 % 1005,2 hPa 0,0 l/m 0 min 0 min 42 W/m 16,1 km/h (3 Bft) 100,00 %
27.10.2020 16:18 11,8 C 11,1 C 9,5 C 77 % 1005,2 hPa 0,0 l/m 0 min 0 min 46 W/m 29,0 km/h (5 Bft) 100,00 %
27.10.2020 16:20 11,8 C 11,1 C 10,0 C 77 % 1005,1 hPa 0,0 l/m 0 min 0 min 48 W/m 25,7 km/h (4 Bft) 100,00 %
27.10.2020 16:22 11,8 C 11,1 C 9,5 C 77 % 1005,1 hPa 0,0 l/m 0 min 0 min 48 W/m 16,1 km/h (3 Bft) 100,00 %
27.10.2020 16:24 11,8 C 11,1 C 9,5 C 77 % 1005,1 hPa 0,0 l/m 0 min 0 min 47 W/m 16,1 km/h (3 Bft) 100,00 %
27.10.2020 16:26 11,8 C 11,1 C 9,5 C 77 % 1005,1 hPa 0,0 l/m 0 min 0 min 46 W/m 22,5 km/h (4 Bft) 100,00 %
27.10.2020 16:28 11,8 C 11,1 C 9,5 C 77 % 1005,0 hPa 0,0 l/m 0 min 0 min 44 W/m 6,4 km/h (2 Bft) 100,00 %
27.10.2020 16:30 11,8 C 11,1 C 9,5 C 77 % 1005,0 hPa 0,0 l/m 0 min 0 min 44 W/m 32,2 km/h (5 Bft) 97,87 %
27.10.2020 16:32 11,8 C 11,1 C 9,5 C 77 % 1005,0 hPa 0,0 l/m 0 min 0 min 42 W/m 3,2 km/h (1 Bft) 100,00 %
27.10.2020 16:34 11,8 C 11,1 C 9,5 C 77 % 1005,0 hPa 0,0 l/m 0 min 0 min 38 W/m 41,8 km/h (6 Bft) 97,87 %
27.10.2020 16:36 11,8 C 11,1 C 9,5 C 77 % 1004,9 hPa 0,0 l/m 0 min 0 min 32 W/m 25,7 km/h (4 Bft) 97,83 %
27.10.2020 16:38 11,8 C 11,1 C 9,5 C 77 % 1005,0 hPa 0,0 l/m 0 min 0 min 28 W/m 25,7 km/h (4 Bft) 100,00 %
27.10.2020 16:40 11,8 C 11,1 C 9,5 C 77 % 1004,9 hPa 0,0 l/m 0 min 0 min 26 W/m 25,7 km/h (4 Bft) 100,00 %
27.10.2020 16:42 11,7 C 11,1 C 9,5 C 77 % 1004,9 hPa 0,0 l/m 0 min 0 min 24 W/m 32,2 km/h (5 Bft) 100,00 %
27.10.2020 16:44 11,7 C 11,1 C 9,5 C 77 % 1004,9 hPa 0,0 l/m 0 min 0 min 21 W/m 19,3 km/h (3 Bft) 100,00 %
27.10.2020 16:46 11,7 C 11,1 C 9,5 C 76 % 1004,9 hPa 0,0 l/m 0 min 0 min 20 W/m 22,5 km/h (4 Bft) 95,74 %
27.10.2020 16:48 11,7 C 11,1 C 9,5 C 76 % 1004,9 hPa 0,0 l/m 0 min 0 min 15 W/m 12,9 km/h (3 Bft) 97,83 %
27.10.2020 16:50 11,7 C 11,1 C 9,5 C 76 % 1004,9 hPa 0,0 l/m 0 min 0 min 10 W/m 19,3 km/h (3 Bft) 97,87 %
27.10.2020 16:52 11,7 C 11,1 C 9,5 C 76 % 1005,0 hPa 0,0 l/m 0 min 0 min 7 W/m 16,1 km/h (3 Bft) 95,74 %
27.10.2020 16:54 11,7 C 11,1 C 9,5 C 76 % 1004,9 hPa 0,0 l/m 0 min 0 min 5 W/m 16,1 km/h (3 Bft) 97,87 %
27.10.2020 16:56 11,7 C 11,1 C 9,5 C 76 % 1004,8 hPa 0,0 l/m 0 min 0 min 5 W/m 12,9 km/h (3 Bft) 97,87 %
27.10.2020 16:58 11,7 C 10,6 C 9,5 C 77 % 1004,8 hPa 0,0 l/m 0 min 2 min 5 W/m 9,7 km/h (2 Bft) 97,87 %
27.10.2020 17:00 11,7 C 10,6 C 9,5 C 77 % 1004,8 hPa 0,0 l/m 0 min 0 min 5 W/m 12,9 km/h (3 Bft) 97,83 %
27.10.2020 17:02 11,7 C 10,6 C 9,5 C 77 % 1004,8 hPa 0,0 l/m 0 min 0 min 0 W/m 19,3 km/h (3 Bft) 97,87 %
27.10.2020 17:04 11,6 C 10,6 C 9,5 C 77 % 1004,8 hPa 0,0 l/m 0 min 0 min 0 W/m 3,2 km/h (1 Bft) 95,74 %
27.10.2020 17:06 11,6 C 10,6 C 9,5 C 78 % 1004,8 hPa 0,0 l/m 0 min 0 min 0 W/m 3,2 km/h (1 Bft) 97,87 %
27.10.2020 17:08 11,6 C 10,6 C 8,9 C 78 % 1004,8 hPa 0,0 l/m 0 min 0 min 0 W/m 3,2 km/h (1 Bft) 97,87 %
27.10.2020 17:10 11,6 C 10,6 C 9,5 C 78 % 1004,8 hPa 0,0 l/m 0 min 0 min 0 W/m 3,2 km/h (1 Bft) 97,83 %
27.10.2020 17:12 11,6 C 10,6 C 9,5 C 78 % 1004,9 hPa 0,0 l/m 0 min 0 min 0 W/m 16,1 km/h (3 Bft) 97,87 %
27.10.2020 17:14 11,6 C 10,6 C 9,5 C 78 % 1004,8 hPa 0,0 l/m 0 min 0 min 0 W/m 16,1 km/h (3 Bft) 97,87 %
27.10.2020 17:16 11,5 C 10,6 C 9,5 C 78 % 1004,8 hPa 0,0 l/m 0 min 0 min 0 W/m 16,1 km/h (3 Bft) 97,87 %
27.10.2020 17:18 11,5 C 10,6 C 9,5 C 78 % 1004,9 hPa 0,0 l/m 0 min 0 min 0 W/m 16,1 km/h (3 Bft) 97,87 %
27.10.2020 17:20 11,5 C 10,6 C 9,5 C 78 % 1004,8 hPa 0,0 l/m 0 min 0 min 0 W/m 16,1 km/h (3 Bft) 97,87 %
27.10.2020 17:22 11,5 C 10,6 C 9,5 C 78 % 1004,9 hPa 0,0 l/m 0 min 0 min 0 W/m 12,9 km/h (3 Bft) 95,65 %
27.10.2020 17:24 11,5 C 10,6 C 9,5 C 78 % 1004,8 hPa 0,0 l/m 0 min 0 min 0 W/m 32,2 km/h (5 Bft) 93,62 %
27.10.2020 17:26 11,5 C 10,6 C 9,5 C 78 % 1004,8 hPa 0,0 l/m 0 min 0 min 0 W/m 6,4 km/h (2 Bft) 93,62 %
27.10.2020 17:28 11,5 C 10,6 C 9,5 C 78 % 1004,8 hPa 0,0 l/m 0 min 0 min 0 W/m 6,4 km/h (2 Bft) 93,62 %
27.10.2020 17:30 11,4 C 10,6 C 9,5 C 78 % 1004,8 hPa 0,0 l/m 0 min 0 min 0 W/m 19,3 km/h (3 Bft) 95,74 %
27.10.2020 17:32 11,4 C 10,6 C 9,5 C 78 % 1004,8 hPa 0,0 l/m 0 min 0 min 0 W/m 16,1 km/h (3 Bft) 97,87 %
27.10.2020 17:34 11,4 C 10,6 C 9,5 C 78 % 1004,8 hPa 0,0 l/m 0 min 0 min 0 W/m 19,3 km/h (3 Bft) 93,48 %
27.10.2020 17:36 11,4 C 10,6 C 9,5 C 78 % 1004,8 hPa 0,0 l/m 0 min 0 min 0 W/m 22,5 km/h (4 Bft) 93,62 %
27.10.2020 17:38 11,4 C 10,6 C 9,5 C 78 % 1004,8 hPa 0,0 l/m 0 min 0 min 0 W/m 6,4 km/h (2 Bft) 95,74 %
27.10.2020 17:40 11,4 C 10,6 C 9,5 C 79 % 1004,7 hPa 0,0 l/m 0 min 0 min 0 W/m 19,3 km/h (3 Bft) 95,74 %
27.10.2020 17:42 11,4 C 10,6 C 9,5 C 79 % 1004,6 hPa 0,0 l/m 0 min 0 min 0 W/m 22,5 km/h (4 Bft) 95,74 %
27.10.2020 17:44 11,4 C 10,6 C 9,5 C 79 % 1004,6 hPa 0,0 l/m 0 min 0 min 0 W/m 22,5 km/h (4 Bft) 95,74 %
27.10.2020 17:46 11,4 C 10,6 C 8,9 C 78 % 1004,7 hPa 0,0 l/m 0 min 0 min 0 W/m 6,4 km/h (2 Bft) 95,65 %
27.10.2020 17:48 11,4 C 10,6 C 9,5 C 78 % 1004,6 hPa 0,0 l/m 0 min 0 min 0 W/m 19,3 km/h (3 Bft) 95,74 %
27.10.2020 17:50 11,4 C 10,6 C 9,5 C 78 % 1004,5 hPa 0,0 l/m 0 min 0 min 0 W/m 16,1 km/h (3 Bft) 97,87 %
27.10.2020 17:52 11,4 C 10,6 C 9,5 C 79 % 1004,5 hPa 0,0 l/m 0 min 0 min 0 W/m 16,1 km/h (3 Bft) 95,74 %
27.10.2020 17:54 11,4 C 10,6 C 9,5 C 79 % 1004,5 hPa 0,0 l/m 0 min 0 min 0 W/m 16,1 km/h (3 Bft) 93,62 %
27.10.2020 17:56 11,3 C 10,6 C 9,5 C 79 % 1004,5 hPa 0,0 l/m 0 min 0 min 0 W/m 6,4 km/h (2 Bft) 95,74 %
27.10.2020 17:58 11,3 C 10,6 C 9,5 C 79 % 1004,5 hPa 0,0 l/m 0 min 0 min 0 W/m 6,4 km/h (2 Bft) 95,65 %
27.10.2020 18:00 11,3 C 10,6 C 9,5 C 79 % 1004,4 hPa 0,0 l/m 0 min 0 min 0 W/m 19,3 km/h (3 Bft) 95,74 %
27.10.2020 18:02 11,3 C 10,6 C 8,9 C 79 % 1004,4 hPa 0,0 l/m 0 min 0 min 0 W/m 19,3 km/h (3 Bft) 93,62 %
27.10.2020 18:04 11,3 C 10,6 C 8,9 C 79 % 1004,4 hPa 0,0 l/m 0 min 0 min 0 W/m 6,4 km/h (2 Bft) 91,49 %
27.10.2020 18:08 11,3 C 10,6 C 9,5 C 79 % 1004,3 hPa 0,0 l/m 0 min 0 min 0 W/m 19,3 km/h (3 Bft) 94,68 %
27.10.2020 18:10 11,3 C 10,6 C 8,9 C 79 % 1004,3 hPa 0,0 l/m 0 min 0 min 0 W/m 6,4 km/h (2 Bft) 95,65 %
27.10.2020 18:12 11,3 C 10,6 C 8,9 C 79 % 1004,4 hPa 0,0 l/m 0 min 0 min 0 W/m 22,5 km/h (4 Bft) 91,49 %
27.10.2020 18:14 11,3 C 10,6 C 9,5 C 79 % 1004,4 hPa 0,0 l/m 0 min 0 min 0 W/m 29,0 km/h (5 Bft) 95,74 %
27.10.2020 18:16 11,3 C 10,6 C 9,5 C 79 % 1004,4 hPa 0,0 l/m 0 min 0 min 0 W/m 16,1 km/h (3 Bft) 93,62 %
27.10.2020 18:18 11,3 C 10,6 C 9,5 C 79 % 1004,4 hPa 0,0 l/m 0 min 0 min 0 W/m 22,5 km/h (4 Bft) 95,74 %
27.10.2020 18:20 11,3 C 10,6 C 9,5 C 79 % 1004,4 hPa 0,0 l/m 0 min 0 min 0 W/m 16,1 km/h (3 Bft) 95,65 %
27.10.2020 18:22 11,3 C 10,6 C 9,5 C 79 % 1004,4 hPa 0,0 l/m 0 min 0 min 0 W/m 22,5 km/h (4 Bft) 95,74 %
27.10.2020 18:24 11,3 C 10,6 C 9,5 C 79 % 1004,3 hPa 0,0 l/m 0 min 0 min 0 W/m 22,5 km/h (4 Bft) 95,74 %
27.10.2020 18:26 11,3 C 10,6 C 9,5 C 79 % 1004,3 hPa 0,0 l/m 0 min 0 min 0 W/m 25,7 km/h (4 Bft) 93,62 %
27.10.2020 18:28 11,3 C 10,6 C 9,5 C 79 % 1004,3 hPa 0,0 l/m 0 min 0 min 0 W/m 25,7 km/h (4 Bft) 95,74 %
27.10.2020 18:30 11,3 C 10,6 C 9,5 C 79 % 1004,3 hPa 0,0 l/m 0 min 0 min 0 W/m 16,1 km/h (3 Bft) 97,87 %
27.10.2020 18:32 11,3 C 10,6 C 9,5 C 79 % 1004,2 hPa 0,0 l/m 0 min 0 min 0 W/m 19,3 km/h (3 Bft) 95,65 %
27.10.2020 18:34 11,3 C 10,6 C 9,5 C 79 % 1004,2 hPa 0,0 l/m 0 min 0 min 0 W/m 19,3 km/h (3 Bft) 97,87 %
27.10.2020 18:36 11,3 C 10,6 C 9,5 C 79 % 1004,2 hPa 0,0 l/m 0 min 0 min 0 W/m 22,5 km/h (4 Bft) 93,62 %
27.10.2020 18:38 11,3 C 10,6 C 9,5 C 79 % 1004,2 hPa 0,0 l/m 0 min 0 min 0 W/m 19,3 km/h (3 Bft) 100,00 %
27.10.2020 18:40 11,4 C 10,6 C 9,5 C 79 % 1004,2 hPa 0,0 l/m 0 min 0 min 0 W/m 19,3 km/h (3 Bft) 100,00 %
27.10.2020 18:42 11,4 C 10,6 C 9,5 C 79 % 1004,2 hPa 0,0 l/m 0 min 0 min 0 W/m 16,1 km/h (3 Bft) 97,87 %
27.10.2020 18:44 11,4 C 10,6 C 9,5 C 79 % 1004,2 hPa 0,0 l/m 0 min 0 min 0 W/m 22,5 km/h (4 Bft) 100,00 %
27.10.2020 18:46 11,4 C 10,6 C 9,5 C 79 % 1004,2 hPa 0,0 l/m 0 min 0 min 0 W/m 25,7 km/h (4 Bft) 100,00 %
27.10.2020 18:48 11,4 C 10,6 C 9,5 C 79 % 1004,2 hPa 0,0 l/m 0 min 0 min 0 W/m 22,5 km/h (4 Bft) 100,00 %
27.10.2020 18:50 11,4 C 10,6 C 9,5 C 79 % 1004,1 hPa 0,0 l/m 0 min 0 min 0 W/m 19,3 km/h (3 Bft) 100,00 %
27.10.2020 18:52 11,4 C 10,6 C 9,5 C 79 % 1004,2 hPa 0,0 l/m 0 min 0 min 0 W/m 22,5 km/h (4 Bft) 97,87 %
27.10.2020 18:54 11,4 C 10,6 C 9,5 C 79 % 1004,2 hPa 0,0 l/m 0 min 0 min 0 W/m 19,3 km/h (3 Bft) 100,00 %
27.10.2020 18:56 11,4 C 10,6 C 9,5 C 79 % 1004,2 hPa 0,0 l/m 0 min 0 min 0 W/m 19,3 km/h (3 Bft) 100,00 %
27.10.2020 18:58 11,4 C 10,6 C 9,5 C 79 % 1004,2 hPa 0,0 l/m 0 min 0 min 0 W/m 29,0 km/h (5 Bft) 100,00 %
27.10.2020 19:00 11,4 C 10,6 C 9,5 C 79 % 1004,2 hPa 0,0 l/m 0 min 0 min 0 W/m 6,4 km/h (2 Bft) 97,87 %
27.10.2020 19:02 11,4 C 10,6 C 9,5 C 79 % 1004,2 hPa 0,0 l/m 0 min 0 min 0 W/m 19,3 km/h (3 Bft) 100,00 %
27.10.2020 19:04 11,4 C 10,6 C 9,5 C 79 % 1004,1 hPa 0,0 l/m 0 min 0 min 0 W/m 22,5 km/h (4 Bft) 100,00 %
27.10.2020 19:06 11,4 C 10,6 C 9,5 C 79 % 1004,2 hPa 0,0 l/m 0 min 0 min 0 W/m 22,5 km/h (4 Bft) 100,00 %
27.10.2020 19:08 11,4 C 10,6 C 9,5 C 79 % 1004,2 hPa 0,0 l/m 0 min 0 min 0 W/m 22,5 km/h (4 Bft) 100,00 %
27.10.2020 19:10 11,4 C 10,6 C 9,5 C 79 % 1004,3 hPa 0,0 l/m 0 min 0 min 0 W/m 19,3 km/h (3 Bft) 100,00 %
27.10.2020 19:12 11,4 C 10,6 C 9,5 C 79 % 1004,2 hPa 0,0 l/m 0 min 0 min 0 W/m 16,1 km/h (3 Bft) 100,00 %
27.10.2020 19:14 11,4 C 10,6 C 9,5 C 79 % 1004,1 hPa 0,0 l/m 0 min 0 min 0 W/m 19,3 km/h (3 Bft) 100,00 %
27.10.2020 19:16 11,4 C 10,6 C 9,5 C 79 % 1004,1 hPa 0,0 l/m 0 min 0 min 0 W/m 22,5 km/h (4 Bft) 100,00 %
27.10.2020 19:18 11,4 C 10,6 C 9,5 C 79 % 1004,2 hPa 0,0 l/m 0 min 0 min 0 W/m 16,1 km/h (3 Bft) 100,00 %
27.10.2020 19:20 11,4 C 10,0 C 9,5 C 79 % 1004,2 hPa 0,0 l/m 0 min 2 min 0 W/m 16,1 km/h (3 Bft) 100,00 %
27.10.2020 19:22 11,4 C 9,4 C 8,4 C 80 % 1004,1 hPa 0,0 l/m 0 min 2 min 0 W/m 12,9 km/h (3 Bft) 100,00 %
27.10.2020 19:24 11,4 C 9,4 C 8,4 C 80 % 1004,1 hPa 0,0 l/m 0 min 2 min 0 W/m 16,1 km/h (3 Bft) 100,00 %
27.10.2020 19:26 11,4 C 8,9 C 8,4 C 81 % 1004,1 hPa 0,0 l/m 0 min 2 min 0 W/m 19,3 km/h (3 Bft) 100,00 %
27.10.2020 19:28 11,4 C 8,9 C 8,4 C 81 % 1004,1 hPa 0,0 l/m 0 min 2 min 0 W/m 19,3 km/h (3 Bft) 97,83 %
27.10.2020 19:30 11,4 C 8,9 C 8,4 C 81 % 1004,1 hPa 0,0 l/m 0 min 2 min 0 W/m 29,0 km/h (5 Bft) 97,87 %
27.10.2020 19:32 11,4 C 9,4 C 8,4 C 82 % 1004,1 hPa 0,0 l/m 0 min 2 min 0 W/m 22,5 km/h (4 Bft) 97,92 %
27.10.2020 19:34 11,3 C 9,4 C 8,4 C 82 % 1004,1 hPa 0,0 l/m 0 min 2 min 0 W/m 12,9 km/h (3 Bft) 95,74 %
27.10.2020 19:36 11,3 C 9,4 C 8,4 C 82 % 1004,1 hPa 0,0 l/m 0 min 2 min 0 W/m 12,9 km/h (3 Bft) 97,87 %
27.10.2020 19:38 11,3 C 9,4 C 8,4 C 82 % 1004,1 hPa 0,0 l/m 0 min 2 min 0 W/m 29,0 km/h (5 Bft) 97,87 %
27.10.2020 19:40 11,2 C 9,4 C 8,4 C 83 % 1003,9 hPa 0,0 l/m 0 min 2 min 0 W/m 16,1 km/h (3 Bft) 95,74 %
27.10.2020 19:42 11,2 C 8,9 C 7,8 C 83 % 1003,9 hPa 0,0 l/m 0 min 2 min 0 W/m 19,3 km/h (3 Bft) 97,83 %
27.10.2020 19:44 11,1 C 8,9 C 7,8 C 84 % 1003,8 hPa 0,0 l/m 0 min 2 min 0 W/m 12,9 km/h (3 Bft) 97,87 %
27.10.2020 19:46 11,1 C 8,9 C 7,8 C 84 % 1003,8 hPa 0,0 l/m 0 min 0 min 0 W/m 16,1 km/h (3 Bft) 97,87 %
27.10.2020 19:48 11,0 C 8,9 C 8,4 C 84 % 1003,7 hPa 0,0 l/m 0 min 0 min 0 W/m 19,3 km/h (3 Bft) 95,74 %
27.10.2020 19:50 11,0 C 8,9 C 8,4 C 85 % 1003,7 hPa 0,0 l/m 0 min 2 min 0 W/m 25,7 km/h (4 Bft) 97,87 %
27.10.2020 19:52 10,9 C 8,9 C 8,4 C 85 % 1003,7 hPa 0,0 l/m 0 min 0 min 0 W/m 22,5 km/h (4 Bft) 95,74 %
27.10.2020 19:54 10,9 C 8,9 C 8,4 C 85 % 1003,6 hPa 0,0 l/m 0 min 0 min 0 W/m 19,3 km/h (3 Bft) 97,83 %
27.10.2020 19:56 10,8 C 9,4 C 8,4 C 85 % 1003,6 hPa 0,0 l/m 0 min 0 min 0 W/m 35,4 km/h (5 Bft) 97,87 %
27.10.2020 19:58 10,8 C 9,4 C 8,4 C 86 % 1003,6 hPa 0,0 l/m 0 min 0 min 0 W/m 16,1 km/h (3 Bft) 95,74 %
27.10.2020 20:00 10,7 C 9,4 C 8,4 C 86 % 1003,6 hPa 0,0 l/m 0 min 0 min 0 W/m 22,5 km/h (4 Bft) 97,87 %
27.10.2020 20:02 10,7 C 9,4 C 8,4 C 87 % 1003,5 hPa 0,0 l/m 0 min 0 min 0 W/m 6,4 km/h (2 Bft) 95,74 %
27.10.2020 20:04 10,6 C 9,4 C 8,4 C 87 % 1003,6 hPa 0,0 l/m 0 min 0 min 0 W/m 22,5 km/h (4 Bft) 97,87 %
27.10.2020 20:06 10,6 C 9,4 C 8,4 C 87 % 1003,5 hPa 0,0 l/m 0 min 0 min 0 W/m 16,1 km/h (3 Bft) 97,83 %
27.10.2020 20:08 10,6 C 9,4 C 8,4 C 87 % 1003,5 hPa 0,0 l/m 0 min 0 min 0 W/m 16,1 km/h (3 Bft) 95,74 %
27.10.2020 20:10 10,5 C 9,4 C 8,4 C 88 % 1003,4 hPa 0,0 l/m 0 min 0 min 0 W/m 19,3 km/h (3 Bft) 97,87 %
27.10.2020 20:12 10,5 C 9,4 C 8,4 C 88 % 1003,4 hPa 0,0 l/m 0 min 0 min 0 W/m 12,9 km/h (3 Bft) 97,87 %
27.10.2020 20:14 10,5 C 9,4 C 8,4 C 88 % 1003,4 hPa 0,0 l/m 0 min 2 min 0 W/m 9,7 km/h (2 Bft) 95,74 %
27.10.2020 20:16 10,5 C 8,9 C 7,8 C 88 % 1003,4 hPa 0,0 l/m 0 min 2 min 0 W/m 22,5 km/h (4 Bft) 95,65 %
27.10.2020 20:18 10,5 C 8,9 C 7,8 C 88 % 1003,3 hPa 0,0 l/m 0 min 2 min 0 W/m 16,1 km/h (3 Bft) 97,87 %
27.10.2020 20:20 10,5 C 8,9 C 7,8 C 88 % 1003,3 hPa 0,0 l/m 0 min 0 min 0 W/m 12,9 km/h (3 Bft) 95,65 %
27.10.2020 20:22 10,4 C 8,9 C 7,8 C 89 % 1003,3 hPa 0,0 l/m 0 min 0 min 0 W/m 19,3 km/h (3 Bft) 97,87 %
27.10.2020 20:24 10,4 C 8,9 C 7,8 C 89 % 1003,3 hPa 0,0 l/m 0 min 0 min 0 W/m 22,5 km/h (4 Bft) 97,87 %
27.10.2020 20:26 10,4 C 8,9 C 7,8 C 89 % 1003,3 hPa 0,0 l/m 0 min 0 min 0 W/m 22,5 km/h (4 Bft) 100,00 %
27.10.2020 20:27 10,4 C 8,9 C 7,8 C 89 % 1003,3 hPa 0,0 l/m 0 min 0 min 0 W/m 22,5 km/h (4 Bft) 100,00 %
27.10.2020 20:30 10,3 C 8,9 C 7,8 C 89 % 1003,3 hPa 0,0 l/m 0 min 0 min 0 W/m 12,9 km/h (3 Bft) 95,74 %
27.10.2020 20:32 10,3 C 9,4 C 7,8 C 89 % 1003,4 hPa 0,0 l/m 0 min 0 min 0 W/m 16,1 km/h (3 Bft) 100,00 %
27.10.2020 20:34 10,3 C 9,4 C 7,8 C 89 % 1003,3 hPa 0,0 l/m 0 min 0 min 0 W/m 19,3 km/h (3 Bft) 100,00 %
27.10.2020 20:36 10,3 C 9,4 C 7,8 C 90 % 1003,3 hPa 0,0 l/m 0 min 0 min 0 W/m 16,1 km/h (3 Bft) 97,87 %
27.10.2020 20:38 10,3 C 9,4 C 8,4 C 90 % 1003,3 hPa 0,0 l/m 0 min 0 min 0 W/m 16,1 km/h (3 Bft) 97,87 %
27.10.2020 20:40 10,3 C 9,4 C 8,4 C 90 % 1003,3 hPa 0,0 l/m 0 min 0 min 0 W/m 25,7 km/h (4 Bft) 97,83 %
27.10.2020 20:42 10,3 C 9,4 C 8,4 C 90 % 1003,3 hPa 0,0 l/m 0 min 0 min 0 W/m 19,3 km/h (3 Bft) 97,87 %
27.10.2020 20:44 10,3 C 9,4 C 8,4 C 90 % 1003,3 hPa 0,0 l/m 0 min 0 min 0 W/m 19,3 km/h (3 Bft) 97,87 %
27.10.2020 20:46 10,3 C 9,4 C 8,4 C 90 % 1003,3 hPa 0,0 l/m 0 min 0 min 0 W/m 16,1 km/h (3 Bft) 97,87 %
27.10.2020 20:48 10,3 C 9,4 C 8,4 C 90 % 1003,3 hPa 0,0 l/m 0 min 0 min 0 W/m 16,1 km/h (3 Bft) 97,87 %
27.10.2020 20:50 10,3 C 9,4 C 8,4 C 90 % 1003,3 hPa 0,0 l/m 0 min 0 min 0 W/m 19,3 km/h (3 Bft) 97,83 %
27.10.2020 20:52 10,3 C 10,0 C 8,4 C 90 % 1003,3 hPa 0,0 l/m 0 min 0 min 0 W/m 19,3 km/h (3 Bft) 95,74 %
27.10.2020 20:54 10,3 C 10,0 C 8,4 C 90 % 1003,3 hPa 0,0 l/m 0 min 0 min 0 W/m 16,1 km/h (3 Bft) 97,87 %
27.10.2020 20:56 10,3 C 10,0 C 8,4 C 90 % 1003,3 hPa 0,0 l/m 0 min 0 min 0 W/m 16,1 km/h (3 Bft) 95,74 %
27.10.2020 20:58 10,3 C 10,0 C 8,4 C 90 % 1003,3 hPa 0,0 l/m 0 min 0 min 0 W/m 19,3 km/h (3 Bft) 97,67 %
27.10.2020 21:00 10,3 C 10,0 C 8,4 C 90 % 1003,2 hPa 0,0 l/m 0 min 0 min 0 W/m 12,9 km/h (3 Bft) 97,92 %
27.10.2020 21:02 10,3 C 10,0 C 8,4 C 90 % 1003,2 hPa 0,0 l/m 0 min 0 min 0 W/m 16,1 km/h (3 Bft) 95,74 %
27.10.2020 21:04 10,3 C 10,0 C 8,4 C 90 % 1003,2 hPa 0,0 l/m 0 min 0 min 0 W/m 22,5 km/h (4 Bft) 97,96 %
27.10.2020 21:06 10,3 C 10,0 C 8,4 C 90 % 1003,2 hPa 0,0 l/m 0 min 0 min 0 W/m 19,3 km/h (3 Bft) 97,87 %
27.10.2020 21:08 10,3 C 10,0 C 8,4 C 90 % 1003,2 hPa 0,0 l/m 0 min 0 min 0 W/m 16,1 km/h (3 Bft) 97,92 %
27.10.2020 21:10 10,3 C 10,0 C 8,4 C 90 % 1003,1 hPa 0,0 l/m 0 min 0 min 0 W/m 3,2 km/h (1 Bft) 95,74 %
27.10.2020 21:12 10,3 C 10,0 C 8,9 C 90 % 1003,1 hPa 0,0 l/m 0 min 0 min 0 W/m 6,4 km/h (2 Bft) 97,87 %
27.10.2020 21:14 10,3 C 10,0 C 8,9 C 90 % 1003,1 hPa 0,0 l/m 0 min 0 min 0 W/m 12,9 km/h (3 Bft) 95,65 %
27.10.2020 21:16 10,4 C 10,0 C 8,9 C 90 % 1003,1 hPa 0,0 l/m 0 min 0 min 0 W/m 12,9 km/h (3 Bft) 95,74 %
27.10.2020 21:18 10,4 C 10,0 C 8,9 C 90 % 1003,1 hPa 0,0 l/m 0 min 0 min 0 W/m 12,9 km/h (3 Bft) 95,74 %
27.10.2020 21:20 10,4 C 10,0 C 8,9 C 90 % 1003,1 hPa 0,0 l/m 0 min 0 min 0 W/m 16,1 km/h (3 Bft) 97,87 %
27.10.2020 21:22 10,4 C 10,0 C 8,9 C 89 % 1003,1 hPa 0,0 l/m 0 min 0 min 0 W/m 16,1 km/h (3 Bft) 97,30 %
27.10.2020 21:24 10,4 C 10,6 C 8,9 C 90 % 1003,0 hPa 0,0 l/m 0 min 0 min 0 W/m 25,7 km/h (4 Bft) 97,92 %
27.10.2020 21:26 10,4 C 10,6 C 8,9 C 89 % 1003,0 hPa 0,0 l/m 0 min 0 min 0 W/m 22,5 km/h (4 Bft) 97,87 %
27.10.2020 21:28 10,5 C 10,6 C 9,5 C 89 % 1003,0 hPa 0,0 l/m 0 min 0 min 0 W/m 6,4 km/h (2 Bft) 95,83 %
27.10.2020 21:30 10,5 C 10,6 C 9,5 C 89 % 1003,0 hPa 0,0 l/m 0 min 0 min 0 W/m 16,1 km/h (3 Bft) 97,87 %
27.10.2020 21:32 10,5 C 10,6 C 9,5 C 89 % 1003,0 hPa 0,0 l/m 0 min 0 min 0 W/m 16,1 km/h (3 Bft) 97,87 %
27.10.2020 21:34 10,6 C 10,6 C 9,5 C 88 % 1003,0 hPa 0,0 l/m 0 min 0 min 0 W/m 25,7 km/h (4 Bft) 97,92 %
27.10.2020 21:36 10,6 C 10,6 C 9,5 C 88 % 1003,0 hPa 0,0 l/m 0 min 0 min 0 W/m 32,2 km/h (5 Bft) 97,87 %
27.10.2020 21:38 10,7 C 10,6 C 9,5 C 88 % 1003,0 hPa 0,0 l/m 0 min 0 min 0 W/m 12,9 km/h (3 Bft) 97,92 %
27.10.2020 21:40 10,8 C 11,1 C 9,5 C 87 % 1003,0 hPa 0,0 l/m 0 min 0 min 0 W/m 22,5 km/h (4 Bft) 97,87 %
27.10.2020 21:42 10,8 C 11,1 C 9,5 C 87 % 1003,1 hPa 0,0 l/m 0 min 0 min 0 W/m 12,9 km/h (3 Bft) 97,87 %
27.10.2020 21:44 10,9 C 11,1 C 9,5 C 87 % 1003,0 hPa 0,0 l/m 0 min 0 min 0 W/m 19,3 km/h (3 Bft) 97,87 %
27.10.2020 21:46 10,9 C 11,1 C 9,5 C 87 % 1003,0 hPa 0,0 l/m 0 min 0 min 0 W/m 16,1 km/h (3 Bft) 97,87 %
27.10.2020 21:48 11,0 C 11,1 C 9,5 C 86 % 1003,0 hPa 0,0 l/m 0 min 0 min 0 W/m 16,1 km/h (3 Bft) 93,62 %
27.10.2020 21:50 11,0 C 11,1 C 9,5 C 86 % 1003,1 hPa 0,0 l/m 0 min 0 min 0 W/m 29,0 km/h (5 Bft) 97,83 %
27.10.2020 21:53 11,1 C 11,1 C 9,5 C 86 % 1003,0 hPa 0,0 l/m 0 min 0 min 0 W/m 19,3 km/h (3 Bft) 98,63 %
27.10.2020 21:54 11,1 C 11,1 C 9,5 C 86 % 1003,0 hPa 0,0 l/m 0 min 0 min 0 W/m 19,3 km/h (3 Bft) 96,15 %
27.10.2020 21:56 11,1 C 11,1 C 9,5 C 86 % 1003,1 hPa 0,0 l/m 0 min 0 min 0 W/m 16,1 km/h (3 Bft) 97,87 %
27.10.2020 21:58 11,2 C 11,1 C 9,5 C 85 % 1003,1 hPa 0,0 l/m 0 min 0 min 0 W/m 19,3 km/h (3 Bft) 97,87 %
27.10.2020 22:00 11,3 C 10,6 C 9,5 C 85 % 1003,0 hPa 0,0 l/m 0 min 0 min 0 W/m 19,3 km/h (3 Bft) 97,87 %
27.10.2020 22:02 11,3 C 10,6 C 9,5 C 85 % 1003,0 hPa 0,0 l/m 0 min 0 min 0 W/m 16,1 km/h (3 Bft) 95,74 %
27.10.2020 22:04 11,3 C 10,6 C 9,5 C 85 % 1003,0 hPa 0,0 l/m 0 min 0 min 0 W/m 16,1 km/h (3 Bft) 95,83 %
27.10.2020 22:06 11,4 C 10,6 C 9,5 C 85 % 1003,0 hPa 0,0 l/m 0 min 0 min 0 W/m 22,5 km/h (4 Bft) 95,74 %
27.10.2020 22:08 11,4 C 10,6 C 9,5 C 85 % 1003,0 hPa 0,0 l/m 0 min 0 min 0 W/m 22,5 km/h (4 Bft) 97,87 %
27.10.2020 22:10 11,4 C 10,6 C 9,5 C 85 % 1003,0 hPa 0,0 l/m 0 min 0 min 0 W/m 6,4 km/h (2 Bft) 97,83 %
27.10.2020 22:12 11,4 C 10,6 C 9,5 C 85 % 1002,9 hPa 0,0 l/m 0 min 0 min 0 W/m 12,9 km/h (3 Bft) 97,62 %
27.10.2020 22:14 11,4 C 10,6 C 9,5 C 85 % 1003,0 hPa 0,0 l/m 0 min 0 min 0 W/m 19,3 km/h (3 Bft) 95,74 %
27.10.2020 22:16 11,4 C 10,6 C 9,5 C 85 % 1002,9 hPa 0,0 l/m 0 min 0 min 0 W/m 22,5 km/h (4 Bft) 93,62 %
27.10.2020 22:18 11,4 C 10,6 C 9,5 C 85 % 1002,9 hPa 0,0 l/m 0 min 0 min 0 W/m 19,3 km/h (3 Bft) 100,00 %
27.10.2020 22:20 11,4 C 11,1 C 9,5 C 85 % 1003,0 hPa 0,0 l/m 0 min 0 min 0 W/m 19,3 km/h (3 Bft) 100,00 %
27.10.2020 22:22 11,5 C 11,1 C 9,5 C 85 % 1003,0 hPa 0,0 l/m 0 min 0 min 0 W/m 19,3 km/h (3 Bft) 97,87 %
27.10.2020 22:24 11,5 C 10,6 C 9,5 C 85 % 1003,0 hPa 0,0 l/m 0 min 0 min 0 W/m 16,1 km/h (3 Bft) 97,83 %
27.10.2020 22:26 11,5 C 10,6 C 9,5 C 85 % 1003,1 hPa 0,0 l/m 0 min 0 min 0 W/m 16,1 km/h (3 Bft) 93,62 %
27.10.2020 22:28 11,5 C 10,6 C 9,5 C 85 % 1003,1 hPa 0,0 l/m 0 min 0 min 0 W/m 16,1 km/h (3 Bft) 97,87 %
27.10.2020 22:30 11,5 C 10,0 C 8,9 C 85 % 1003,1 hPa 0,0 l/m 0 min 0 min 0 W/m 16,1 km/h (3 Bft) 97,87 %
27.10.2020 22:32 11,5 C 10,0 C 8,9 C 85 % 1003,1 hPa 0,0 l/m 0 min 0 min 0 W/m 12,9 km/h (3 Bft) 97,87 %
27.10.2020 22:34 11,5 C 10,0 C 8,9 C 86 % 1003,1 hPa 0,0 l/m 0 min 0 min 0 W/m 16,1 km/h (3 Bft) 93,48 %
27.10.2020 22:36 11,5 C 9,4 C 8,4 C 86 % 1003,1 hPa 0,0 l/m 0 min 0 min 0 W/m 6,4 km/h (2 Bft) 97,87 %
27.10.2020 22:38 11,5 C 9,4 C 8,4 C 86 % 1003,1 hPa 0,0 l/m 0 min 2 min 0 W/m 19,3 km/h (3 Bft) 97,87 %
27.10.2020 22:40 11,5 C 8,9 C 8,4 C 87 % 1003,1 hPa 0,0 l/m 0 min 2 min 0 W/m 6,4 km/h (2 Bft) 97,56 %
27.10.2020 22:42 11,5 C 8,9 C 8,4 C 87 % 1003,1 hPa 0,2 l/m 0 min 2 min 0 W/m 0,0 km/h (0 Bft) 97,87 %
27.10.2020 22:44 11,5 C 8,9 C 8,4 C 87 % 1003,1 hPa 0,0 l/m 0 min 2 min 0 W/m 3,2 km/h (1 Bft) 97,92 %
27.10.2020 22:46 11,4 C 8,9 C 8,4 C 88 % 1003,1 hPa 0,0 l/m 0 min 0 min 0 W/m 19,3 km/h (3 Bft) 97,87 %
27.10.2020 22:48 11,4 C 8,9 C 7,8 C 88 % 1003,1 hPa 0,0 l/m 0 min 0 min 0 W/m 16,1 km/h (3 Bft) 97,87 %
27.10.2020 22:50 11,4 C 8,9 C 7,8 C 88 % 1003,0 hPa 0,0 l/m 0 min 0 min 0 W/m 12,9 km/h (3 Bft) 97,83 %
27.10.2020 22:52 11,4 C 8,9 C 7,8 C 88 % 1003,0 hPa 0,0 l/m 0 min 0 min 0 W/m 3,2 km/h (1 Bft) 95,92 %
27.10.2020 22:54 11,3 C 8,9 C 8,4 C 89 % 1003,0 hPa 0,0 l/m 0 min 0 min 0 W/m 19,3 km/h (3 Bft) 97,92 %
27.10.2020 22:56 11,3 C 8,9 C 8,4 C 89 % 1002,9 hPa 0,0 l/m 0 min 0 min 0 W/m 19,3 km/h (3 Bft) 97,87 %
27.10.2020 22:58 11,3 C 9,4 C 8,4 C 89 % 1003,0 hPa 0,0 l/m 0 min 0 min 0 W/m 12,9 km/h (3 Bft) 97,87 %
27.10.2020 23:00 11,2 C 9,4 C 8,4 C 89 % 1003,0 hPa 0,0 l/m 0 min 0 min 0 W/m 12,9 km/h (3 Bft) 95,74 %
27.10.2020 23:02 11,2 C 9,4 C 8,4 C 90 % 1003,0 hPa 0,0 l/m 0 min 0 min 0 W/m 16,1 km/h (3 Bft) 97,87 %
27.10.2020 23:04 11,2 C 9,4 C 8,4 C 90 % 1003,0 hPa 0,0 l/m 0 min 0 min 0 W/m 16,1 km/h (3 Bft) 97,92 %
27.10.2020 23:06 11,1 C 9,4 C 8,4 C 90 % 1003,0 hPa 0,0 l/m 0 min 0 min 0 W/m 16,1 km/h (3 Bft) 95,74 %
27.10.2020 23:08 11,1 C 9,4 C 8,4 C 90 % 1003,0 hPa 0,0 l/m 0 min 0 min 0 W/m 6,4 km/h (2 Bft) 95,74 %
27.10.2020 23:10 11,1 C 9,4 C 8,4 C 90 % 1003,0 hPa 0,0 l/m 0 min 0 min 0 W/m 12,9 km/h (3 Bft) 100,00 %
27.10.2020 23:12 11,1 C 9,4 C 8,4 C 90 % 1003,0 hPa 0,0 l/m 0 min 0 min 0 W/m 35,4 km/h (5 Bft) 97,87 %
27.10.2020 23:14 11,1 C 10,0 C 8,4 C 91 % 1003,0 hPa 0,0 l/m 0 min 0 min 0 W/m 16,1 km/h (3 Bft) 97,56 %
27.10.2020 23:16 11,1 C 10,0 C 8,4 C 91 % 1003,0 hPa 0,0 l/m 0 min 0 min 0 W/m 12,9 km/h (3 Bft) 97,92 %
27.10.2020 23:18 11,1 C 10,0 C 8,4 C 91 % 1003,1 hPa 0,0 l/m 0 min 0 min 0 W/m 19,3 km/h (3 Bft) 95,74 %
27.10.2020 23:20 11,2 C 10,0 C 8,9 C 91 % 1003,1 hPa 0,0 l/m 0 min 0 min 0 W/m 25,7 km/h (4 Bft) 97,87 %
27.10.2020 23:22 11,2 C 10,0 C 8,9 C 91 % 1003,1 hPa 0,0 l/m 0 min 0 min 0 W/m 19,3 km/h (3 Bft) 97,87 %
27.10.2020 23:24 11,2 C 10,0 C 8,9 C 91 % 1003,2 hPa 0,0 l/m 0 min 0 min 0 W/m 22,5 km/h (4 Bft) 95,74 %
27.10.2020 23:26 11,3 C 10,0 C 8,9 C 91 % 1003,2 hPa 0,0 l/m 0 min 0 min 0 W/m 12,9 km/h (3 Bft) 97,87 %
27.10.2020 23:28 11,3 C 10,0 C 8,9 C 91 % 1003,1 hPa 0,0 l/m 0 min 2 min 0 W/m 22,5 km/h (4 Bft) 97,87 %
27.10.2020 23:30 11,3 C 10,0 C 8,9 C 91 % 1003,1 hPa 0,0 l/m 0 min 0 min 0 W/m 25,7 km/h (4 Bft) 97,87 %
27.10.2020 23:32 11,3 C 10,0 C 8,9 C 91 % 1003,1 hPa 0,0 l/m 0 min 0 min 0 W/m 22,5 km/h (4 Bft) 97,87 %
27.10.2020 23:34 11,4 C 10,0 C 8,9 C 91 % 1003,2 hPa 0,0 l/m 0 min 0 min 0 W/m 35,4 km/h (5 Bft) 97,83 %
27.10.2020 23:36 11,4 C 10,0 C 8,9 C 91 % 1003,1 hPa 0,0 l/m 0 min 0 min 0 W/m 35,4 km/h (5 Bft) 95,74 %
27.10.2020 23:38 11,4 C 10,6 C 9,5 C 91 % 1003,2 hPa 0,0 l/m 0 min 0 min 0 W/m 32,2 km/h (5 Bft) 97,87 %
27.10.2020 23:40 11,5 C 10,6 C 9,5 C 91 % 1003,3 hPa 0,0 l/m 0 min 0 min 0 W/m 32,2 km/h (5 Bft) 95,74 %
27.10.2020 23:42 11,5 C 10,6 C 9,5 C 91 % 1003,4 hPa 0,0 l/m 0 min 0 min 0 W/m 32,2 km/h (5 Bft) 97,87 %
27.10.2020 23:44 11,6 C 10,6 C 9,5 C 91 % 1003,3 hPa 0,0 l/m 0 min 0 min 0 W/m 19,3 km/h (3 Bft) 95,74 %
27.10.2020 23:46 11,6 C 10,6 C 9,5 C 91 % 1003,3 hPa 0,0 l/m 0 min 0 min 0 W/m 29,0 km/h (5 Bft) 95,65 %
27.10.2020 23:48 11,6 C 10,6 C 9,5 C 91 % 1003,2 hPa 0,0 l/m 0 min 0 min 0 W/m 29,0 km/h (5 Bft) 97,87 %
27.10.2020 23:50 11,7 C 10,6 C 9,5 C 91 % 1003,3 hPa 0,0 l/m 0 min 0 min 0 W/m 22,5 km/h (4 Bft) 95,74 %
27.10.2020 23:52 11,7 C 10,6 C 9,5 C 91 % 1003,2 hPa 0,0 l/m 0 min 0 min 0 W/m 25,7 km/h (4 Bft) 95,74 %
27.10.2020 23:54 11,8 C 10,6 C 9,5 C 91 % 1003,2 hPa 0,0 l/m 0 min 0 min 0 W/m 29,0 km/h (5 Bft) 97,56 %
27.10.2020 23:56 11,8 C 10,6 C 9,5 C 91 % 1003,2 hPa 0,0 l/m 0 min 0 min 0 W/m 38,6 km/h (5 Bft) 97,92 %
27.10.2020 23:58 11,8 C 10,6 C 9,5 C 91 % 1003,1 hPa 0,0 l/m 0 min 0 min 0 W/m 25,7 km/h (4 Bft) 97,87 %
_ Min-Zeit 03:30 02:10 00:16 13:48 22:12 - - - - 03:18 00:02
Minimum _ 8,6 C 7,8 C 7,2 C 75 % 1002,9 hPa - - - - 0,0 km/h (0 Bft) 10,53 %
_ Max-Zeit 13:28 09:04 13:20 03:44 11:10 00:26 08:56 00:08 10:14 13:14 00:00
Maximum _ 12,5 C 13,9 C 11,1 C 93 % 1007,0 hPa 0,2 l/m 2 min 4 min 406 W/m 51,5 km/h
S (7 Bft)
100,00 %
Durchschnitt _ 10,6 C 10,0 C 8,8 C 85 % 1004,8 hPa #0,4 l/m #1:38 h #1:08 h 115 W/m 18,2 km/h (3 Bft) 97,12 %
© 2020 W. Hausmann